AFR1203 KMCO-LFPG

Flight info

Callsign AFR1203
Flight time 8h 59m
Altitude 38000
Route JEEMY4 PAINN SHRKS BERTT GURGE RAYVO Q87 NOWAE FAK BOOYA Q34 RBV Q22 LLUND BIZEX Q133 CAM BEEHS JIGZY TAFFY N693A NEEKO 5350N 5440N 5430N 5420N DOGAL BEXET MORAG NUCHU L18 MID Y803 SFD UM605 BIBAX
Aircraft B77W/H-SDE1E2E3FGHIJ2J3J4J5M1RWXY/LB1D1

Departure

Time 2026-04-25 13:10
Airport Orlando International Airport (KMCO)

Arrival

Time 2026-04-25 22:10
Airport Charles de Gaulle International Airport (LFPG)
Time Latitude Longitude Altitude Speed Heading
2026-04-25 12:07 28.43358 -81.31477 107 ft 0 kts 326°
2026-04-25 12:39 28.43347 -81.31468 106 ft 2 kts 322°
2026-04-25 12:39 28.43336 -81.31454 106 ft 2 kts 291°
2026-04-25 12:39 28.43333 -81.31436 104 ft 2 kts 259°
2026-04-25 12:40 28.43338 -81.31420 103 ft 0 kts 241°
2026-04-25 12:46 28.43336 -81.31425 104 ft 2 kts 241°
2026-04-25 12:47 28.43327 -81.31443 106 ft 4 kts 241°
2026-04-25 12:47 28.43310 -81.31477 107 ft 6 kts 240°
2026-04-25 12:47 28.43287 -81.31524 107 ft 8 kts 244°
2026-04-25 12:47 28.43274 -81.31591 106 ft 10 kts 269°
2026-04-25 12:48 28.43280 -81.31665 107 ft 6 kts 275°
2026-04-25 12:48 28.43277 -81.31721 107 ft 8 kts 254°
2026-04-25 12:48 28.43261 -81.31761 107 ft 6 kts 242°
2026-04-25 12:48 28.43259 -81.31766 107 ft 0 kts 242°
2026-04-25 12:50 28.43258 -81.31768 107 ft 2 kts 242°
2026-04-25 12:50 28.43251 -81.31804 109 ft 7 kts 274°
2026-04-25 12:50 28.43294 -81.31845 108 ft 10 kts 355°
2026-04-25 12:51 28.43382 -81.31847 108 ft 15 kts
2026-04-25 12:51 28.43501 -81.31842 109 ft 19 kts
2026-04-25 12:51 28.43647 -81.31848 110 ft 24 kts 358°
2026-04-25 12:51 28.43815 -81.31845 110 ft 24 kts 359°
2026-04-25 12:52 28.43979 -81.31871 113 ft 24 kts 342°
2026-04-25 12:52 28.44142 -81.31900 111 ft 24 kts 359°
2026-04-25 12:52 28.44307 -81.31902 110 ft 24 kts 360°
2026-04-25 12:52 28.44468 -81.31904 110 ft 22 kts 359°
2026-04-25 12:53 28.44606 -81.31906 107 ft 13 kts 359°
2026-04-25 12:53 28.44665 -81.31907 107 ft 0 kts 358°
2026-04-25 12:54 28.44673 -81.31908 108 ft 3 kts 358°
2026-04-25 12:54 28.44715 -81.31907 107 ft 9 kts
2026-04-25 12:54 28.44789 -81.31913 108 ft 12 kts 338°
2026-04-25 12:54 28.44825 -81.31991 107 ft 11 kts 272°
2026-04-25 12:55 28.44825 -81.31995 107 ft 0 kts 271°
2026-04-25 12:59 28.44825 -81.31997 107 ft 2 kts 271°
2026-04-25 12:59 28.44826 -81.32038 108 ft 8 kts 270°
2026-04-25 12:59 28.44824 -81.32100 107 ft 0 kts 269°
2026-04-25 13:07 28.44823 -81.32166 107 ft 15 kts 269°
2026-04-25 13:07 28.44789 -81.32226 106 ft 8 kts 192°
2026-04-25 13:07 28.44778 -81.32228 107 ft 0 kts 182°
2026-04-25 13:09 28.44777 -81.32228 107 ft 3 kts 182°
2026-04-25 13:09 28.44566 -81.32227 109 ft 65 kts 179°
2026-04-25 13:09 28.43896 -81.32220 112 ft 127 kts 179°
2026-04-25 13:10 28.42814 -81.32210 111 ft 178 kts 180°
2026-04-25 13:10 28.41478 -81.32197 303 ft 200 kts 180°
2026-04-25 13:10 28.40076 -81.32195 817 ft 206 kts 183°
2026-04-25 13:10 28.38609 -81.32421 1254 ft 217 kts 197°
2026-04-25 13:11 28.37263 -81.33209 1785 ft 219 kts 214°
2026-04-25 13:11 28.35967 -81.34233 2115 ft 234 kts 215°
2026-04-25 13:11 28.34619 -81.35351 2435 ft 250 kts 222°
2026-04-25 13:11 28.33417 -81.36824 3039 ft 253 kts 229°
2026-04-25 13:12 28.32290 -81.38360 3638 ft 258 kts 231°
2026-04-25 13:12 28.31246 -81.40069 4100 ft 266 kts 248°
2026-04-25 13:12 28.30827 -81.42092 4643 ft 269 kts 262°
2026-04-25 13:12 28.30659 -81.43529 5036 ft 272 kts 263°
2026-04-25 13:13 28.30335 -81.46380 5540 ft 275 kts 263°
2026-04-25 13:13 28.30094 -81.48534 5907 ft 275 kts 263°
2026-04-25 13:13 28.29854 -81.50707 6281 ft 277 kts 263°
2026-04-25 13:13 28.29620 -81.52851 6630 ft 278 kts 263°
2026-04-25 13:14 28.29379 -81.55024 6969 ft 278 kts 263°
2026-04-25 13:14 28.29154 -81.57227 6981 ft 279 kts 270°
2026-04-25 13:14 28.29513 -81.59368 7004 ft 277 kts 297°
2026-04-25 13:14 28.30686 -81.61048 7075 ft 274 kts 324°
2026-04-25 13:15 28.32404 -81.61910 7417 ft 272 kts 347°
2026-04-25 13:15 28.34302 -81.62271 7855 ft 278 kts 353°
2026-04-25 13:15 28.36252 -81.62344 8325 ft 281 kts
2026-04-25 13:15 28.38192 -81.62225 8832 ft 283 kts
2026-04-25 13:16 28.40161 -81.62059 9336 ft 283 kts
2026-04-25 13:16 28.42130 -81.61881 9858 ft 285 kts
2026-04-25 13:16 28.44114 -81.61691 10335 ft 286 kts
2026-04-25 13:16 28.46105 -81.61463 10741 ft 291 kts
2026-04-25 13:17 28.48136 -81.60809 10908 ft 315 kts 18°
2026-04-25 13:17 28.50255 -81.59888 11070 ft 337 kts 19°
2026-04-25 13:17 28.52513 -81.58870 11249 ft 359 kts 19°
2026-04-25 13:17 28.54868 -81.57828 11657 ft 372 kts 19°
2026-04-25 13:18 28.57329 -81.56770 12307 ft 379 kts 18°
2026-04-25 13:18 28.59812 -81.55727 13104 ft 383 kts 18°
2026-04-25 13:18 28.62341 -81.54683 13922 ft 386 kts 18°
2026-04-25 13:18 28.64884 -81.53643 14633 ft 390 kts 17°
2026-04-25 13:19 28.67464 -81.52596 15316 ft 396 kts 17°
2026-04-25 13:19 28.70087 -81.51532 15930 ft 402 kts 17°
2026-04-25 13:19 28.72716 -81.50466 15979 ft 406 kts 17°
2026-04-25 13:19 28.74485 -81.49749 15983 ft 405 kts 17°
2026-04-25 13:20 28.78036 -81.48304 15980 ft 402 kts 17°
2026-04-25 13:20 28.80675 -81.47230 15982 ft 402 kts 17°
2026-04-25 13:20 28.83320 -81.46154 15990 ft 402 kts 17°
2026-04-25 13:20 28.85936 -81.45089 15984 ft 403 kts 17°
2026-04-25 13:21 28.88599 -81.44004 15986 ft 404 kts 17°
2026-04-25 13:21 28.91212 -81.42940 15995 ft 404 kts 17°
2026-04-25 13:21 28.93912 -81.42064 16137 ft 404 kts
2026-04-25 13:21 28.96706 -81.41675 16833 ft 406 kts
2026-04-25 13:22 28.99533 -81.41670 17596 ft 406 kts 353°
2026-04-25 13:22 29.02368 -81.42008 18292 ft 409 kts 351°
2026-04-25 13:22 29.05187 -81.42369 18845 ft 414 kts 352°
2026-04-25 13:23 29.10992 -81.43033 20120 ft 420 kts 353°
2026-04-25 13:23 29.13879 -81.43317 20740 ft 423 kts 353°
2026-04-25 13:23 29.16843 -81.43593 21328 ft 427 kts 353°
2026-04-25 13:23 29.19823 -81.43866 21906 ft 430 kts 353°
2026-04-25 13:24 29.22826 -81.44144 22478 ft 434 kts 353°
2026-04-25 13:24 29.25809 -81.44422 23041 ft 437 kts 353°
2026-04-25 13:24 29.28859 -81.44711 23593 ft 441 kts 353°
2026-04-25 13:24 29.31930 -81.45002 24053 ft 444 kts 353°
2026-04-25 13:25 29.35029 -81.45298 24520 ft 447 kts 354°
2026-04-25 13:25 29.38144 -81.45594 24985 ft 450 kts 354°
2026-04-25 13:25 29.41272 -81.45892 25449 ft 452 kts 354°
2026-04-25 13:25 29.44430 -81.46194 25909 ft 455 kts 354°
2026-04-25 13:26 29.47567 -81.46494 26364 ft 458 kts 354°
2026-04-25 13:26 29.50753 -81.46798 26795 ft 460 kts 354°
2026-04-25 13:26 29.53970 -81.47105 27215 ft 463 kts 354°
2026-04-25 13:26 29.57193 -81.47413 27636 ft 466 kts 355°
2026-04-25 13:27 29.60395 -81.47714 28031 ft 468 kts 355°
2026-04-25 13:27 29.63667 -81.48011 28428 ft 471 kts 355°
2026-04-25 13:27 29.66954 -81.48305 28802 ft 473 kts 355°
2026-04-25 13:27 29.70208 -81.48596 29146 ft 475 kts 355°
2026-04-25 13:28 29.73529 -81.48895 29504 ft 477 kts 355°
2026-04-25 13:28 29.74647 -81.48996 29616 ft 478 kts 355°
2026-04-25 13:28 29.80185 -81.49498 30162 ft 480 kts 355°
2026-04-25 13:28 29.83522 -81.49802 30519 ft 479 kts 355°
2026-04-25 13:29 29.86802 -81.50132 30896 ft 478 kts 353°
2026-04-25 13:29 29.90096 -81.50744 31233 ft 478 kts 348°
2026-04-25 13:29 29.93315 -81.51723 31542 ft 478 kts 343°
2026-04-25 13:30 29.99630 -81.54028 32179 ft 477 kts 342°
2026-04-25 13:30 30.02810 -81.55193 32500 ft 476 kts 343°
2026-04-25 13:30 30.05968 -81.56340 32827 ft 476 kts 343°
2026-04-25 13:31 30.12326 -81.58627 32976 ft 480 kts 343°
2026-04-25 13:31 30.15520 -81.59770 33224 ft 480 kts 343°
2026-04-25 13:31 30.18709 -81.60910 33627 ft 477 kts 343°
2026-04-25 13:31 30.21826 -81.62026 34013 ft 474 kts 343°
2026-04-25 13:32 30.24976 -81.63155 34347 ft 471 kts 343°
2026-04-25 13:32 30.28117 -81.64282 34672 ft 468 kts 343°
2026-04-25 13:32 30.31189 -81.65385 34957 ft 466 kts 343°
2026-04-25 13:32 30.34277 -81.66494 35346 ft 462 kts 343°
2026-04-25 13:33 30.37336 -81.67594 35726 ft 457 kts 343°
2026-04-25 13:33 30.40381 -81.68690 35969 ft 457 kts 342°
2026-04-25 13:33 30.43404 -81.69779 36025 ft 460 kts 342°
2026-04-25 13:34 30.49564 -81.71999 36277 ft 462 kts 342°
2026-04-25 13:34 30.52597 -81.73094 36436 ft 462 kts 342°
2026-04-25 13:34 30.55683 -81.74207 36540 ft 463 kts 342°
2026-04-25 13:35 30.61963 -81.75846 36719 ft 466 kts 354°
2026-04-25 13:35 30.65210 -81.76090 36826 ft 466 kts 358°
2026-04-25 13:35 30.68468 -81.75955 36897 ft 467 kts
2026-04-25 13:36 30.74926 -81.75119 36961 ft 469 kts
2026-04-25 13:36 30.81405 -81.74241 36966 ft 471 kts
2026-04-25 13:37 30.87963 -81.73400 36960 ft 473 kts
2026-04-25 13:37 30.94485 -81.72585 36964 ft 474 kts
2026-04-25 13:38 31.01065 -81.71764 36956 ft 474 kts
2026-04-25 13:38 31.07590 -81.70945 36957 ft 473 kts
2026-04-25 13:39 31.14153 -81.70116 36961 ft 472 kts
2026-04-25 13:39 31.20586 -81.68500 36957 ft 473 kts 15°
2026-04-25 13:40 31.26858 -81.66175 36955 ft 473 kts 16°
2026-04-25 13:40 31.33095 -81.63848 36961 ft 472 kts 15°
2026-04-25 13:41 31.39373 -81.61536 36957 ft 471 kts 15°
2026-04-25 13:41 31.45612 -81.59254 36956 ft 471 kts 15°
2026-04-25 13:42 31.51877 -81.56962 36961 ft 471 kts 15°
2026-04-25 13:42 31.58107 -81.54679 36962 ft 471 kts 15°
2026-04-25 13:43 31.64382 -81.52375 36947 ft 471 kts 15°
2026-04-25 13:43 31.69589 -81.50461 36948 ft 471 kts 15°
2026-04-25 13:44 31.76885 -81.47774 36945 ft 472 kts 15°
2026-04-25 13:44 31.82101 -81.45851 36945 ft 472 kts 15°
2026-04-25 13:45 31.88390 -81.43529 36943 ft 472 kts 15°
2026-04-25 13:45 31.94638 -81.41218 36945 ft 473 kts 15°
2026-04-25 13:46 32.00930 -81.38888 36945 ft 473 kts 15°
2026-04-25 13:46 32.07182 -81.36570 36949 ft 473 kts 15°
2026-04-25 13:47 32.13455 -81.34241 36951 ft 473 kts 15°
2026-04-25 13:47 32.19767 -81.31894 36955 ft 474 kts 15°
2026-04-25 13:48 32.26068 -81.29547 36945 ft 474 kts 15°
2026-04-25 13:48 32.32336 -81.27208 36949 ft 474 kts 15°
2026-04-25 13:49 32.38638 -81.24854 36940 ft 474 kts 15°
2026-04-25 13:49 32.44910 -81.22418 36932 ft 475 kts 20°
2026-04-25 13:50 32.50742 -81.18788 36940 ft 477 kts 31°
2026-04-25 13:50 32.56043 -81.13968 36938 ft 479 kts 37°
2026-04-25 13:51 32.61141 -81.08927 36931 ft 480 kts 37°
2026-04-25 13:51 32.66269 -81.03869 36929 ft 480 kts 37°
2026-04-25 13:52 32.71427 -80.98827 36931 ft 480 kts 37°
2026-04-25 13:52 32.76604 -80.93779 36935 ft 480 kts 37°
2026-04-25 13:53 32.81776 -80.88729 36941 ft 480 kts 37°
2026-04-25 13:53 32.86948 -80.83669 36946 ft 481 kts 37°
2026-04-25 13:54 32.92100 -80.78619 36950 ft 481 kts 37°
2026-04-25 13:54 32.97268 -80.73545 36960 ft 481 kts 37°
2026-04-25 13:55 33.02434 -80.68466 36952 ft 481 kts 37°
2026-04-25 13:55 33.07588 -80.63390 36944 ft 481 kts 38°
2026-04-25 13:56 33.12761 -80.58288 36942 ft 482 kts 38°
2026-04-25 13:56 33.17896 -80.53215 36920 ft 482 kts 38°
2026-04-25 13:57 33.23078 -80.48088 36930 ft 482 kts 38°
2026-04-25 13:57 33.28237 -80.42975 36924 ft 483 kts 38°
2026-04-25 13:58 33.33405 -80.37846 36922 ft 483 kts 38°
2026-04-25 13:58 33.38582 -80.32698 36930 ft 484 kts 38°
2026-04-25 13:59 33.43771 -80.27531 36930 ft 484 kts 38°
2026-04-25 13:59 33.48927 -80.22387 36930 ft 483 kts 38°
2026-04-25 14:00 33.54104 -80.17217 36940 ft 483 kts 38°
2026-04-25 14:00 33.59258 -80.12056 36945 ft 483 kts 38°
2026-04-25 14:01 33.64487 -80.07058 36939 ft 482 kts 32°
2026-04-25 14:01 33.70339 -80.03079 36938 ft 479 kts 25°
2026-04-25 14:02 33.76322 -79.99525 36938 ft 479 kts 25°
2026-04-25 14:02 33.82249 -79.95971 36935 ft 479 kts 25°
2026-04-25 14:03 33.88225 -79.92337 36927 ft 480 kts 25°
2026-04-25 14:03 33.94161 -79.88708 36924 ft 481 kts 25°
2026-04-25 14:04 34.00142 -79.85047 36927 ft 481 kts 25°
2026-04-25 14:04 34.06123 -79.81382 36932 ft 482 kts 25°
2026-04-25 14:05 34.12080 -79.77725 36935 ft 482 kts 25°
2026-04-25 14:05 34.18075 -79.74042 36936 ft 483 kts 25°
2026-04-25 14:06 34.24086 -79.70332 36935 ft 484 kts 25°
2026-04-25 14:06 34.30046 -79.66644 36931 ft 484 kts 25°
2026-04-25 14:07 34.36063 -79.62917 36927 ft 484 kts 25°
2026-04-25 14:07 34.42039 -79.59214 36925 ft 485 kts 25°
2026-04-25 14:08 34.48062 -79.55477 36924 ft 486 kts 25°
2026-04-25 14:08 34.54055 -79.51752 36932 ft 487 kts 25°
2026-04-25 14:09 34.60044 -79.47850 36920 ft 488 kts 27°
2026-04-25 14:09 34.65959 -79.43796 36927 ft 487 kts 27°
2026-04-25 14:10 34.71899 -79.39784 36931 ft 487 kts 27°
2026-04-25 14:10 34.77789 -79.35804 36938 ft 486 kts 27°
2026-04-25 14:11 34.83719 -79.31786 36933 ft 486 kts 27°
2026-04-25 14:11 34.89594 -79.27798 36931 ft 486 kts 27°
2026-04-25 14:12 34.95511 -79.23775 36923 ft 486 kts 27°
2026-04-25 14:12 35.01432 -79.19741 36902 ft 486 kts 27°
2026-04-25 14:13 35.07320 -79.15724 36898 ft 486 kts 27°
2026-04-25 14:13 35.13257 -79.11666 36905 ft 487 kts 27°
2026-04-25 14:14 35.19158 -79.07626 36911 ft 487 kts 27°
2026-04-25 14:14 35.25052 -79.03584 36907 ft 488 kts 27°
2026-04-25 14:15 35.30986 -78.99509 36905 ft 488 kts 27°
2026-04-25 14:15 35.36885 -78.95448 36914 ft 489 kts 26°
2026-04-25 14:16 35.42836 -78.91348 36915 ft 489 kts 26°
2026-04-25 14:16 35.48785 -78.87235 36916 ft 490 kts 26°
2026-04-25 14:17 35.54694 -78.83140 36912 ft 490 kts 26°
2026-04-25 14:17 35.60646 -78.79010 36905 ft 491 kts 26°
2026-04-25 14:18 35.66571 -78.74903 36901 ft 491 kts 26°
2026-04-25 14:18 35.72537 -78.70766 36903 ft 491 kts 26°
2026-04-25 14:19 35.78468 -78.66646 36905 ft 491 kts 26°
2026-04-25 14:19 35.84438 -78.62489 36899 ft 491 kts 26°
2026-04-25 14:20 35.90408 -78.58325 36902 ft 491 kts 26°
2026-04-25 14:20 35.96332 -78.54185 36907 ft 491 kts 26°
2026-04-25 14:21 36.02288 -78.50015 36911 ft 491 kts 26°
2026-04-25 14:21 36.08247 -78.45837 36914 ft 492 kts 26°
2026-04-25 14:22 36.14181 -78.41669 36916 ft 492 kts 26°
2026-04-25 14:22 36.19140 -78.38179 36905 ft 492 kts 26°
2026-04-25 14:23 36.25109 -78.33972 36895 ft 492 kts 26°
2026-04-25 14:23 36.31036 -78.29786 36891 ft 492 kts 26°
2026-04-25 14:24 36.37042 -78.25700 36899 ft 489 kts 21°
2026-04-25 14:24 36.43405 -78.22832 36889 ft 483 kts 12°
2026-04-25 14:25 36.49853 -78.20568 36916 ft 483 kts 11°
2026-04-25 14:25 36.56349 -78.18278 36933 ft 484 kts 12°
2026-04-25 14:26 36.62800 -78.15955 36945 ft 484 kts 12°
2026-04-25 14:26 36.69290 -78.13593 36960 ft 485 kts 12°
2026-04-25 14:27 36.75751 -78.11235 36957 ft 485 kts 12°
2026-04-25 14:27 36.82209 -78.08877 36944 ft 485 kts 12°
2026-04-25 14:28 36.88695 -78.06506 36926 ft 486 kts 12°
2026-04-25 14:28 36.95194 -78.04126 36881 ft 486 kts 11°
2026-04-25 14:29 37.01702 -78.01738 36893 ft 486 kts 11°
2026-04-25 14:29 37.08160 -77.99364 36889 ft 486 kts 11°
2026-04-25 14:30 37.14673 -77.96965 36890 ft 486 kts 11°
2026-04-25 14:30 37.24391 -77.93380 36886 ft 487 kts 11°
2026-04-25 14:31 37.30898 -77.90973 36890 ft 487 kts 11°
2026-04-25 14:31 37.37405 -77.88561 36898 ft 487 kts 11°
2026-04-25 14:32 37.43892 -77.86152 36900 ft 488 kts 11°
2026-04-25 14:32 37.50400 -77.83733 36906 ft 488 kts 11°
2026-04-25 14:33 37.56844 -77.80864 36909 ft 493 kts 17°
2026-04-25 14:33 37.63149 -77.77511 36926 ft 494 kts 18°
2026-04-25 14:34 37.69478 -77.74120 36928 ft 494 kts 17°
2026-04-25 14:34 37.75837 -77.70752 36933 ft 494 kts 17°
2026-04-25 14:35 37.82159 -77.67419 36924 ft 494 kts 17°
2026-04-25 14:35 37.88487 -77.64079 36943 ft 494 kts 17°
2026-04-25 14:36 37.94845 -77.60715 36935 ft 493 kts 17°
2026-04-25 14:36 38.01189 -77.57350 36931 ft 493 kts 17°
2026-04-25 14:37 38.07491 -77.54001 36933 ft 493 kts 17°
2026-04-25 14:37 38.14371 -77.50337 36939 ft 493 kts 17°
2026-04-25 14:38 38.20132 -77.47263 36941 ft 492 kts 17°
2026-04-25 14:38 38.26459 -77.43882 36936 ft 492 kts 17°
2026-04-25 14:39 38.32740 -77.40519 36940 ft 491 kts 17°
2026-04-25 14:39 38.38948 -77.36736 36935 ft 499 kts 27°
2026-04-25 14:40 38.44397 -77.31110 36958 ft 510 kts 42°
2026-04-25 14:40 38.49074 -77.24335 36964 ft 511 kts 44°
2026-04-25 14:41 38.53727 -77.17426 36965 ft 511 kts 44°
2026-04-25 14:41 38.58394 -77.10616 36939 ft 511 kts 43°
2026-04-25 14:42 38.62327 -77.04922 36939 ft 511 kts 43°
2026-04-25 14:42 38.67801 -76.96983 36968 ft 510 kts 43°
2026-04-25 14:43 38.72465 -76.90191 36977 ft 510 kts 43°
2026-04-25 14:43 38.77152 -76.83352 36970 ft 510 kts 43°
2026-04-25 14:44 38.81837 -76.76497 36975 ft 509 kts 43°
2026-04-25 14:44 38.86505 -76.69650 36973 ft 509 kts 43°
2026-04-25 14:45 38.91137 -76.62840 36999 ft 508 kts 43°
2026-04-25 14:45 38.95790 -76.55985 36996 ft 507 kts 43°
2026-04-25 14:46 39.00433 -76.49128 36985 ft 507 kts 43°
2026-04-25 14:46 39.05040 -76.42311 36985 ft 506 kts 43°
2026-04-25 14:47 39.08885 -76.36611 37010 ft 506 kts 43°
2026-04-25 14:47 39.14261 -76.28621 37005 ft 505 kts 43°
2026-04-25 14:48 39.18867 -76.21759 37012 ft 505 kts 43°
2026-04-25 14:48 39.23466 -76.14895 37009 ft 505 kts 43°
2026-04-25 14:49 39.28042 -76.08057 37009 ft 504 kts 43°
2026-04-25 14:49 39.32640 -76.01193 37013 ft 503 kts 43°
2026-04-25 14:50 39.37186 -75.94390 37014 ft 503 kts 43°
2026-04-25 14:50 39.41763 -75.87524 37020 ft 503 kts 43°
2026-04-25 14:51 39.46312 -75.80682 37029 ft 502 kts 43°
2026-04-25 14:51 39.50872 -75.73809 37036 ft 501 kts 43°
2026-04-25 14:52 39.55391 -75.66983 37043 ft 501 kts 43°
2026-04-25 14:52 39.59170 -75.61263 37029 ft 501 kts 43°
2026-04-25 14:53 39.64468 -75.53228 37055 ft 500 kts 43°
2026-04-25 14:53 39.68747 -75.46129 37062 ft 504 kts 48°
2026-04-25 14:54 39.72861 -75.38711 37034 ft 505 kts 48°
2026-04-25 14:54 39.76936 -75.31344 37061 ft 504 kts 48°
2026-04-25 14:55 39.81056 -75.23946 37072 ft 504 kts 48°
2026-04-25 14:55 39.85181 -75.16544 37076 ft 504 kts 48°
2026-04-25 14:56 39.89267 -75.09191 37068 ft 504 kts 48°
2026-04-25 14:56 39.93372 -75.01784 37068 ft 503 kts 48°
2026-04-25 14:57 39.97463 -74.94378 37065 ft 503 kts 49°
2026-04-25 14:57 40.01383 -74.86794 37067 ft 504 kts 51°
2026-04-25 14:58 40.05215 -74.79136 37068 ft 503 kts 51°
2026-04-25 14:58 40.09071 -74.71500 37073 ft 502 kts 50°
2026-04-25 14:59 40.12904 -74.63945 37078 ft 501 kts 50°
2026-04-25 14:59 40.16749 -74.56347 37077 ft 500 kts 50°
2026-04-25 15:00 40.20941 -74.49195 37082 ft 490 kts 40°
2026-04-25 15:00 40.25930 -74.43218 37095 ft 481 kts 32°
2026-04-25 15:01 40.31137 -74.37763 37098 ft 481 kts 32°
2026-04-25 15:01 40.36362 -74.32245 37115 ft 482 kts 32°
2026-04-25 15:02 40.41565 -74.26678 37111 ft 482 kts 32°
2026-04-25 15:02 40.46737 -74.21118 37129 ft 481 kts 32°
2026-04-25 15:03 40.51045 -74.16480 37128 ft 481 kts 32°
2026-04-25 15:03 40.57061 -74.09996 37131 ft 480 kts 32°
2026-04-25 15:04 40.62231 -74.04420 37150 ft 479 kts 32°
2026-04-25 15:04 40.67367 -73.98870 37159 ft 479 kts 32°
2026-04-25 15:05 40.71657 -73.94223 37151 ft 478 kts 32°
2026-04-25 15:06 40.79357 -73.85863 37121 ft 476 kts 32°
2026-04-25 15:06 40.84516 -73.80485 37119 ft 469 kts 26°
2026-04-25 15:07 40.90187 -73.76396 37124 ft 458 kts 16°
2026-04-25 15:07 40.96124 -73.73506 37128 ft 453 kts 13°
2026-04-25 15:08 41.02052 -73.70747 37120 ft 453 kts 13°
2026-04-25 15:08 41.07976 -73.67936 37119 ft 453 kts 13°
2026-04-25 15:09 41.13921 -73.65081 37120 ft 454 kts 13°
2026-04-25 15:09 41.22806 -73.60801 37138 ft 454 kts 13°
2026-04-25 15:10 41.28821 -73.58278 37145 ft 448 kts
2026-04-25 15:11 41.38022 -73.56722 37142 ft 443 kts 360°
2026-04-25 15:11 41.44126 -73.55946 37139 ft 443 kts 360°
2026-04-25 15:12 41.53334 -73.54725 37129 ft 443 kts
2026-04-25 15:12 41.58436 -73.54031 37136 ft 443 kts
2026-04-25 15:13 41.68653 -73.52635 37115 ft 442 kts
2026-04-25 15:14 41.74787 -73.51795 37116 ft 442 kts
2026-04-25 15:14 41.80926 -73.50955 37112 ft 442 kts
2026-04-25 15:15 41.87024 -73.50119 37096 ft 442 kts
2026-04-25 15:15 41.93164 -73.49275 37096 ft 442 kts
2026-04-25 15:16 41.99261 -73.48434 37074 ft 441 kts
2026-04-25 15:16 42.08439 -73.47166 37071 ft 440 kts
2026-04-25 15:17 42.17563 -73.45903 37070 ft 440 kts
2026-04-25 15:18 42.23660 -73.45056 37077 ft 439 kts
2026-04-25 15:18 42.32770 -73.43788 37087 ft 440 kts
2026-04-25 15:19 42.37840 -73.43081 37083 ft 440 kts
2026-04-25 15:19 42.44978 -73.42083 37095 ft 441 kts
2026-04-25 15:20 42.51052 -73.41232 37083 ft 441 kts
2026-04-25 15:20 42.57188 -73.40372 37081 ft 442 kts
2026-04-25 15:21 42.63276 -73.39515 37096 ft 442 kts
2026-04-25 15:21 42.69396 -73.38653 37109 ft 441 kts
2026-04-25 15:22 42.75504 -73.37791 37109 ft 440 kts 360°
2026-04-25 15:22 42.81566 -73.36933 37102 ft 440 kts 360°
2026-04-25 15:23 42.87627 -73.36074 37106 ft 440 kts 360°
2026-04-25 15:23 42.93726 -73.35208 37108 ft 440 kts 360°
2026-04-25 15:24 42.99836 -73.34341 37100 ft 440 kts 359°
2026-04-25 15:24 43.04909 -73.33757 37102 ft 438 kts 358°
2026-04-25 15:25 43.12010 -73.33060 37092 ft 439 kts 358°
2026-04-25 15:25 43.18068 -73.32454 37108 ft 439 kts 358°
2026-04-25 15:26 43.24176 -73.31825 37102 ft 440 kts 358°
2026-04-25 15:26 43.30248 -73.31189 37112 ft 440 kts 358°
2026-04-25 15:27 43.36379 -73.30546 37096 ft 440 kts 358°
2026-04-25 15:28 43.45535 -73.29583 37109 ft 440 kts 358°
2026-04-25 15:28 43.51613 -73.28943 37107 ft 440 kts 358°
2026-04-25 15:29 43.57718 -73.28298 37110 ft 439 kts 358°
2026-04-25 15:29 43.63797 -73.27656 37100 ft 439 kts 358°
2026-04-25 15:30 43.69897 -73.27009 37110 ft 439 kts 358°
2026-04-25 15:30 43.76001 -73.26361 37099 ft 439 kts 358°
2026-04-25 15:31 43.82070 -73.25716 37107 ft 439 kts 358°
2026-04-25 15:31 43.88166 -73.25066 37108 ft 439 kts 358°
2026-04-25 15:32 43.94263 -73.24415 37113 ft 439 kts 358°
2026-04-25 15:32 44.00297 -73.23229 37103 ft 450 kts 15°
2026-04-25 15:33 44.05591 -73.18238 37103 ft 478 kts 42°
2026-04-25 15:33 44.07607 -73.14519 37129 ft 483 kts 48°
2026-04-25 15:33 44.11378 -73.06683 37123 ft 487 kts 49°
2026-04-25 15:34 44.15116 -72.98835 37126 ft 489 kts 49°
2026-04-25 15:34 44.17649 -72.93623 37142 ft 489 kts 48°
2026-04-25 15:35 44.24710 -72.79287 37145 ft 488 kts 47°
2026-04-25 15:36 44.30459 -72.67589 37154 ft 485 kts 47°
2026-04-25 15:36 44.34243 -72.59856 37153 ft 483 kts 47°
2026-04-25 15:37 44.38013 -72.52131 37144 ft 482 kts 47°
2026-04-25 15:37 44.41791 -72.44366 37138 ft 481 kts 47°
2026-04-25 15:38 44.45536 -72.36652 37139 ft 480 kts 47°
2026-04-25 15:38 44.49291 -72.28896 37137 ft 480 kts 47°
2026-04-25 15:39 44.53018 -72.21179 37144 ft 480 kts 47°
2026-04-25 15:39 44.56761 -72.13404 37124 ft 480 kts 47°
2026-04-25 15:40 44.59239 -72.08246 37136 ft 480 kts 47°
2026-04-25 15:40 44.64211 -71.97868 37135 ft 480 kts 47°
2026-04-25 15:41 44.67939 -71.90063 37141 ft 480 kts 47°
2026-04-25 15:41 44.71679 -71.82211 37144 ft 481 kts 47°
2026-04-25 15:42 44.75363 -71.74454 37140 ft 482 kts 47°
2026-04-25 15:42 44.79079 -71.66611 37138 ft 482 kts 48°
2026-04-25 15:43 44.82782 -71.58770 37139 ft 481 kts 48°
2026-04-25 15:43 44.86486 -71.50906 37150 ft 481 kts 48°
2026-04-25 15:44 44.90187 -71.43030 37149 ft 481 kts 48°
2026-04-25 15:44 44.93878 -71.35152 37138 ft 480 kts 48°
2026-04-25 15:45 44.97544 -71.27304 37149 ft 479 kts 48°
2026-04-25 15:45 44.99974 -71.22092 37155 ft 479 kts 49°
2026-04-25 15:46 45.04842 -71.11623 37144 ft 479 kts 49°
2026-04-25 15:46 45.08509 -71.03710 37146 ft 479 kts 49°
2026-04-25 15:47 45.11728 -70.97386 37138 ft 470 kts 41°
2026-04-25 15:47 45.16872 -70.89512 37144 ft 467 kts 39°
2026-04-25 15:48 45.20591 -70.83928 37146 ft 467 kts 39°
2026-04-25 15:48 45.25041 -70.77175 37143 ft 468 kts 40°
2026-04-25 15:49 45.29473 -70.70381 37141 ft 468 kts 40°
2026-04-25 15:49 45.33896 -70.63564 37145 ft 469 kts 40°
2026-04-25 15:50 45.38290 -70.56777 37148 ft 469 kts 40°
2026-04-25 15:50 45.42705 -70.49942 37132 ft 469 kts 40°
2026-04-25 15:51 45.46370 -70.44256 37146 ft 468 kts 41°
2026-04-25 15:51 45.51524 -70.36239 37144 ft 469 kts 41°
2026-04-25 15:52 45.55926 -70.29377 37144 ft 469 kts 41°
2026-04-25 15:52 45.60327 -70.22496 37144 ft 469 kts 41°
2026-04-25 15:53 45.64724 -70.15606 37141 ft 469 kts 41°
2026-04-25 15:53 45.69119 -70.08699 37133 ft 469 kts 42°
2026-04-25 15:54 45.73512 -70.01779 37137 ft 469 kts 42°
2026-04-25 15:54 45.77870 -69.94897 37137 ft 469 kts 42°
2026-04-25 15:55 45.82279 -69.87918 37131 ft 469 kts 43°
2026-04-25 15:55 45.86627 -69.81016 37136 ft 470 kts 43°
2026-04-25 15:56 45.91011 -69.74041 37125 ft 470 kts 43°
2026-04-25 15:56 45.95397 -69.67044 37126 ft 470 kts 43°
2026-04-25 15:57 45.99774 -69.60045 37123 ft 470 kts 43°
2026-04-25 15:57 46.04123 -69.53070 37122 ft 470 kts 43°
2026-04-25 15:58 46.08498 -69.46036 37121 ft 470 kts 44°
2026-04-25 15:58 46.12878 -69.38978 37114 ft 470 kts 44°
2026-04-25 15:59 46.17223 -69.31957 37119 ft 470 kts 44°
2026-04-25 15:59 46.21546 -69.24953 37119 ft 469 kts 44°
2026-04-25 16:00 46.24453 -69.20235 37110 ft 469 kts 44°
2026-04-25 16:00 46.30241 -69.10812 37106 ft 469 kts 44°
2026-04-25 16:01 46.34551 -69.03777 37105 ft 469 kts 44°
2026-04-25 16:01 46.38900 -68.96660 37116 ft 471 kts 44°
2026-04-25 16:02 46.43232 -68.89552 37109 ft 473 kts 45°
2026-04-25 16:02 46.47576 -68.82403 37112 ft 474 kts 45°
2026-04-25 16:03 46.51938 -68.75207 37115 ft 475 kts 45°
2026-04-25 16:03 46.56306 -68.67980 37119 ft 474 kts 45°
2026-04-25 16:04 46.60637 -68.60796 37130 ft 474 kts 45°
2026-04-25 16:04 46.64987 -68.53562 37122 ft 473 kts 46°
2026-04-25 16:05 46.69283 -68.46400 37113 ft 471 kts 46°
2026-04-25 16:06 46.75728 -68.35618 37114 ft 468 kts 46°
2026-04-25 16:06 46.79968 -68.28503 37105 ft 466 kts 46°
2026-04-25 16:07 46.84215 -68.21355 37082 ft 464 kts 46°
2026-04-25 16:07 46.88445 -68.14220 37065 ft 463 kts 46°
2026-04-25 16:08 46.92632 -68.07138 37069 ft 462 kts 46°
2026-04-25 16:08 46.96836 -68.00007 37067 ft 461 kts 46°
2026-04-25 16:09 47.00995 -67.92936 37078 ft 460 kts 47°
2026-04-25 16:09 47.05188 -67.85787 37084 ft 460 kts 47°
2026-04-25 16:10 47.09347 -67.78678 37090 ft 460 kts 47°
2026-04-25 16:10 47.13523 -67.71521 37094 ft 461 kts 47°
2026-04-25 16:11 47.17673 -67.64391 37091 ft 461 kts 47°
2026-04-25 16:11 47.21844 -67.57204 37090 ft 461 kts 47°
2026-04-25 16:12 47.25986 -67.50047 37093 ft 461 kts 47°
2026-04-25 16:12 47.30156 -67.42824 37090 ft 461 kts 47°
2026-04-25 16:13 47.34289 -67.35646 37086 ft 461 kts 47°
2026-04-25 16:13 47.38436 -67.28394 37084 ft 462 kts 48°
2026-04-25 16:14 47.42439 -67.21003 37090 ft 462 kts 50°
2026-04-25 16:14 47.46412 -67.13514 37107 ft 461 kts 50°
2026-04-25 16:14 47.48369 -67.09828 37245 ft 459 kts 50°
2026-04-25 16:15 47.50350 -67.06104 37381 ft 460 kts 49°
2026-04-25 16:15 47.52347 -67.02354 37511 ft 461 kts 49°
2026-04-25 16:15 47.54315 -66.98660 37634 ft 462 kts 49°
2026-04-25 16:15 47.56308 -66.94918 37772 ft 462 kts 49°
2026-04-25 16:16 47.58300 -66.91174 37910 ft 463 kts 49°
2026-04-25 16:16 47.62311 -66.83618 38060 ft 466 kts 50°
2026-04-25 16:17 47.66318 -66.76048 38088 ft 471 kts 50°
2026-04-25 16:17 47.70374 -66.68364 38090 ft 476 kts 50°
2026-04-25 16:18 47.74478 -66.60565 38088 ft 479 kts 50°
2026-04-25 16:18 47.78564 -66.52777 38081 ft 481 kts 50°
2026-04-25 16:19 47.82685 -66.44899 38080 ft 481 kts 50°
2026-04-25 16:19 47.86780 -66.37049 38070 ft 480 kts 50°
2026-04-25 16:20 47.92886 -66.25301 38068 ft 477 kts 50°
2026-04-25 16:21 47.98945 -66.13595 38062 ft 474 kts 50°
2026-04-25 16:21 48.02977 -66.05778 38052 ft 473 kts 51°
2026-04-25 16:22 48.06968 -65.98017 38055 ft 472 kts 51°
2026-04-25 16:22 48.10943 -65.90265 38050 ft 472 kts 51°
2026-04-25 16:23 48.14944 -65.82441 38052 ft 472 kts 51°
2026-04-25 16:23 48.18919 -65.74645 38043 ft 473 kts 51°
2026-04-25 16:24 48.22922 -65.66772 38049 ft 473 kts 51°
2026-04-25 16:24 48.26898 -65.58927 38049 ft 474 kts 51°
2026-04-25 16:25 48.30894 -65.51021 38049 ft 475 kts 51°
2026-04-25 16:25 48.34863 -65.43144 38043 ft 475 kts 51°
2026-04-25 16:26 48.38846 -65.35218 38049 ft 474 kts 51°
2026-04-25 16:26 48.42830 -65.27266 38040 ft 474 kts 51°
2026-04-25 16:27 48.46786 -65.19347 38042 ft 473 kts 51°
2026-04-25 16:27 48.50725 -65.11440 38028 ft 472 kts 52°
2026-04-25 16:28 48.54673 -65.03489 38040 ft 471 kts 52°
2026-04-25 16:28 48.58577 -64.95603 38038 ft 470 kts 52°
2026-04-25 16:29 48.62491 -64.87676 38047 ft 469 kts 52°
2026-04-25 16:29 48.66372 -64.79794 38051 ft 469 kts 52°
2026-04-25 16:30 48.70281 -64.71829 38051 ft 468 kts 52°
2026-04-25 16:30 48.74144 -64.63935 38038 ft 469 kts 52°
2026-04-25 16:31 48.78028 -64.55976 38043 ft 469 kts 52°
2026-04-25 16:31 48.81891 -64.48036 38066 ft 469 kts 52°
2026-04-25 16:32 48.85776 -64.40026 38045 ft 470 kts 52°
2026-04-25 16:32 48.89617 -64.32084 38045 ft 470 kts 52°
2026-04-25 16:33 48.93491 -64.24050 38044 ft 470 kts 53°
2026-04-25 16:33 48.96712 -64.17352 38035 ft 470 kts 53°
2026-04-25 16:34 49.00558 -64.09333 38027 ft 470 kts 53°
2026-04-25 16:34 49.04432 -64.01229 38020 ft 470 kts 53°
2026-04-25 16:35 49.07617 -63.94550 38013 ft 470 kts 53°
2026-04-25 16:35 49.12081 -63.85159 38007 ft 469 kts 53°
2026-04-25 16:36 49.15923 -63.77051 37999 ft 468 kts 53°
2026-04-25 16:36 49.19721 -63.69009 37998 ft 468 kts 53°
2026-04-25 16:37 49.23529 -63.60923 37989 ft 467 kts 53°
2026-04-25 16:37 49.27294 -63.52906 37986 ft 466 kts 53°
2026-04-25 16:38 49.31087 -63.44804 37987 ft 466 kts 53°
2026-04-25 16:38 49.34841 -63.36760 37990 ft 465 kts 54°
2026-04-25 16:39 49.38607 -63.28668 37983 ft 465 kts 54°
2026-04-25 16:39 49.42357 -63.20584 37986 ft 466 kts 54°
2026-04-25 16:40 49.46105 -63.12481 37981 ft 466 kts 54°
2026-04-25 16:40 49.49866 -63.04324 37983 ft 466 kts 54°
2026-04-25 16:41 49.53606 -62.96189 37975 ft 466 kts 54°
2026-04-25 16:41 49.59203 -62.83966 37971 ft 466 kts 54°
2026-04-25 16:42 49.62936 -62.75783 37983 ft 465 kts 54°
2026-04-25 16:42 49.66645 -62.67626 37966 ft 465 kts 54°
2026-04-25 16:43 49.70340 -62.59478 37959 ft 464 kts 54°
2026-04-25 16:43 49.74047 -62.51275 37955 ft 463 kts 55°
2026-04-25 16:44 49.77713 -62.43141 37950 ft 463 kts 55°
2026-04-25 16:44 49.81394 -62.34946 37945 ft 462 kts 55°
2026-04-25 16:45 49.85041 -62.26804 37940 ft 462 kts 55°
2026-04-25 16:45 49.88702 -62.18604 37932 ft 462 kts 55°
2026-04-25 16:46 49.92359 -62.10386 37926 ft 462 kts 55°
2026-04-25 16:46 49.95391 -62.03555 37916 ft 462 kts 56°
2026-04-25 16:47 49.99632 -61.93970 37912 ft 462 kts 56°
2026-04-25 16:47 50.03254 -61.85756 37908 ft 462 kts 56°
2026-04-25 16:48 50.06899 -61.77462 37909 ft 463 kts 56°
2026-04-25 16:48 50.10514 -61.69215 37907 ft 463 kts 56°
2026-04-25 16:49 50.14150 -61.60890 37907 ft 463 kts 56°
2026-04-25 16:49 50.17756 -61.52609 37905 ft 463 kts 56°
2026-04-25 16:50 50.21361 -61.44305 37901 ft 463 kts 56°
2026-04-25 16:50 50.24983 -61.35934 37898 ft 463 kts 56°
2026-04-25 16:51 50.28569 -61.27621 37899 ft 462 kts 57°
2026-04-25 16:51 50.31557 -61.20675 37894 ft 462 kts 57°
2026-04-25 16:52 50.35724 -61.10955 37900 ft 461 kts 57°
2026-04-25 16:52 50.39305 -61.02572 37892 ft 461 kts 57°
2026-04-25 16:53 50.44637 -60.90044 37897 ft 460 kts 57°
2026-04-25 16:54 50.48165 -60.81722 37901 ft 460 kts 57°
2026-04-25 16:54 50.51718 -60.73314 37892 ft 460 kts 57°
2026-04-25 16:55 50.55237 -60.64955 37896 ft 459 kts 58°
2026-04-25 16:55 50.56726 -60.60578 37884 ft 457 kts 70°
2026-04-25 16:55 50.57614 -60.55808 37897 ft 453 kts 74°
2026-04-25 16:55 50.58767 -60.51190 37873 ft 454 kts 60°
2026-04-25 16:56 50.60457 -60.46973 37908 ft 454 kts 57°
2026-04-25 16:56 50.64015 -60.38735 37892 ft 458 kts 57°
2026-04-25 16:57 50.67585 -60.30422 37890 ft 460 kts 58°
2026-04-25 16:57 50.71138 -60.21947 37888 ft 462 kts 58°
2026-04-25 16:58 50.74641 -60.13477 37884 ft 463 kts 58°
2026-04-25 16:58 50.78162 -60.04919 37881 ft 463 kts 58°
2026-04-25 16:59 50.81652 -59.96410 37882 ft 462 kts 58°
2026-04-25 16:59 50.85155 -59.87851 37874 ft 460 kts 59°
2026-04-25 17:00 50.88605 -59.79395 37875 ft 459 kts 59°
2026-04-25 17:00 50.92065 -59.70885 37873 ft 457 kts 59°
2026-04-25 17:01 50.95488 -59.62436 37865 ft 456 kts 59°
2026-04-25 17:01 50.98916 -59.53946 37870 ft 455 kts 59°
2026-04-25 17:02 51.02303 -59.45533 37870 ft 455 kts 59°
2026-04-25 17:02 51.05718 -59.37025 37868 ft 455 kts 59°
2026-04-25 17:03 51.09116 -59.28530 37861 ft 456 kts 59°
2026-04-25 17:03 51.12501 -59.20037 37859 ft 456 kts 59°
2026-04-25 17:04 51.15907 -59.11467 37853 ft 457 kts 59°
2026-04-25 17:04 51.19285 -59.02937 37854 ft 457 kts 60°
2026-04-25 17:05 51.22676 -58.94345 37849 ft 457 kts 60°
2026-04-25 17:05 51.27747 -58.81445 37846 ft 457 kts 60°
2026-04-25 17:06 51.31104 -58.72869 37838 ft 456 kts 60°
2026-04-25 17:06 51.34449 -58.64297 37833 ft 456 kts 60°
2026-04-25 17:07 51.37805 -58.55665 37832 ft 455 kts 60°
2026-04-25 17:07 51.41151 -58.47033 37831 ft 455 kts 60°
2026-04-25 17:08 51.44463 -58.38458 37832 ft 454 kts 60°
2026-04-25 17:08 51.47794 -58.29806 37827 ft 454 kts 60°
2026-04-25 17:09 51.51092 -58.21211 37821 ft 454 kts 60°
2026-04-25 17:09 51.54406 -58.12545 37823 ft 454 kts 60°
2026-04-25 17:10 51.57710 -58.03875 37816 ft 455 kts 60°
2026-04-25 17:10 51.61017 -57.95165 37815 ft 455 kts 60°
2026-04-25 17:11 51.64294 -57.86508 37819 ft 455 kts 60°
2026-04-25 17:11 51.67587 -57.77777 37814 ft 455 kts 60°
2026-04-25 17:12 51.70850 -57.69096 37814 ft 455 kts 60°
2026-04-25 17:12 51.74134 -57.60332 37819 ft 456 kts 60°
2026-04-25 17:13 51.76327 -57.54463 37812 ft 456 kts 60°
2026-04-25 17:13 51.80683 -57.42762 37817 ft 455 kts 60°
2026-04-25 17:14 51.83924 -57.34021 37810 ft 455 kts 60°
2026-04-25 17:14 51.87177 -57.25218 37815 ft 455 kts 61°
2026-04-25 17:15 51.90404 -57.16455 37829 ft 454 kts 61°
2026-04-25 17:15 51.93640 -57.07635 37812 ft 454 kts 61°
2026-04-25 17:16 51.96866 -56.98813 37823 ft 453 kts 61°
2026-04-25 17:16 52.00059 -56.90051 37826 ft 452 kts 61°
2026-04-25 17:17 52.03262 -56.81232 37829 ft 452 kts 61°
2026-04-25 17:17 52.06440 -56.72451 37824 ft 452 kts 61°
2026-04-25 17:18 52.09609 -56.63663 37827 ft 452 kts 61°
2026-04-25 17:18 52.12789 -56.54813 37830 ft 452 kts 61°
2026-04-25 17:19 52.15949 -56.45991 37833 ft 452 kts 61°
2026-04-25 17:19 52.19128 -56.37081 37827 ft 454 kts 61°
2026-04-25 17:20 52.21766 -56.29665 37807 ft 455 kts 61°
2026-04-25 17:20 52.24924 -56.20758 37811 ft 454 kts 61°
2026-04-25 17:21 52.28092 -56.11790 37806 ft 454 kts 61°
2026-04-25 17:21 52.31230 -56.02876 37795 ft 454 kts 61°
2026-04-25 17:22 52.33853 -55.95401 37799 ft 455 kts 61°
2026-04-25 17:22 52.37511 -55.84933 37797 ft 455 kts 61°
2026-04-25 17:23 52.40086 -55.75566 37794 ft 451 kts 81°
2026-04-25 17:23 52.40765 -55.65427 37794 ft 451 kts 82°
2026-04-25 17:24 52.41839 -55.55230 37797 ft 454 kts 79°
2026-04-25 17:24 52.43111 -55.45064 37787 ft 457 kts 78°
2026-04-25 17:25 52.44410 -55.34911 37778 ft 458 kts 78°
2026-04-25 17:25 52.45704 -55.24630 37756 ft 460 kts 78°
2026-04-25 17:26 52.46968 -55.14405 37745 ft 459 kts 78°
2026-04-25 17:26 52.48229 -55.04100 37735 ft 458 kts 78°
2026-04-25 17:27 52.49464 -54.93925 37728 ft 456 kts 78°
2026-04-25 17:27 52.50489 -54.85422 37722 ft 455 kts 79°
2026-04-25 17:28 52.51915 -54.73505 37716 ft 453 kts 79°
2026-04-25 17:28 52.53113 -54.63407 37712 ft 452 kts 79°
2026-04-25 17:29 52.54310 -54.53245 37720 ft 452 kts 79°
2026-04-25 17:29 52.55492 -54.43126 37693 ft 453 kts 79°
2026-04-25 17:30 52.56675 -54.32920 37703 ft 453 kts 79°
2026-04-25 17:30 52.57842 -54.22771 37691 ft 453 kts 79°
2026-04-25 17:31 52.59009 -54.12539 37690 ft 454 kts 79°
2026-04-25 17:31 52.60166 -54.02322 37679 ft 454 kts 79°
2026-04-25 17:32 52.61308 -53.92147 37683 ft 455 kts 79°
2026-04-25 17:32 52.62445 -53.81930 37672 ft 455 kts 79°
2026-04-25 17:33 52.63584 -53.71605 37666 ft 456 kts 79°
2026-04-25 17:33 52.64706 -53.61360 37665 ft 456 kts 79°
2026-04-25 17:34 52.65821 -53.51089 37659 ft 457 kts 79°
2026-04-25 17:34 52.66929 -53.40800 37657 ft 457 kts 79°
2026-04-25 17:35 52.68033 -53.30446 37656 ft 458 kts 79°
2026-04-25 17:35 52.69123 -53.20146 37643 ft 458 kts 79°
2026-04-25 17:36 52.70211 -53.09772 37645 ft 457 kts 79°
2026-04-25 17:36 52.71287 -52.99417 37639 ft 457 kts 80°
2026-04-25 17:37 52.72348 -52.89117 37634 ft 457 kts 80°
2026-04-25 17:37 52.73400 -52.78822 37631 ft 457 kts 80°
2026-04-25 17:38 52.74272 -52.70202 37634 ft 457 kts 80°
2026-04-25 17:38 52.75490 -52.58074 37622 ft 457 kts 80°
2026-04-25 17:39 52.76514 -52.47763 37617 ft 457 kts 80°
2026-04-25 17:39 52.77535 -52.37388 37614 ft 456 kts 80°
2026-04-25 17:40 52.78542 -52.27063 37614 ft 456 kts 80°
2026-04-25 17:40 52.79539 -52.16743 37680 ft 457 kts 80°
2026-04-25 17:41 52.80537 -52.06309 37610 ft 459 kts 80°
2026-04-25 17:41 52.81523 -51.95913 37603 ft 459 kts 80°
2026-04-25 17:42 52.82502 -51.85486 37604 ft 459 kts 80°
2026-04-25 17:42 52.83473 -51.75031 37598 ft 459 kts 80°
2026-04-25 17:43 52.84429 -51.64638 37594 ft 458 kts 80°
2026-04-25 17:43 52.85383 -51.54175 37585 ft 458 kts 80°
2026-04-25 17:44 52.86318 -51.43807 37589 ft 458 kts 81°
2026-04-25 17:44 52.87251 -51.33350 37595 ft 458 kts 81°
2026-04-25 17:45 52.87865 -51.26413 37577 ft 458 kts 81°
2026-04-25 17:45 52.89080 -51.12548 37576 ft 457 kts 81°
2026-04-25 17:46 52.89983 -51.02103 37575 ft 457 kts 81°
2026-04-25 17:46 52.90875 -50.91685 37583 ft 456 kts 81°
2026-04-25 17:47 52.91757 -50.81289 37564 ft 457 kts 81°
2026-04-25 17:47 52.92632 -50.70853 37572 ft 456 kts 81°
2026-04-25 17:48 52.93922 -50.55233 37560 ft 457 kts 81°
2026-04-25 17:49 52.94775 -50.44784 37560 ft 457 kts 82°
2026-04-25 17:49 52.95620 -50.34300 37559 ft 457 kts 82°
2026-04-25 17:50 52.96450 -50.23890 37552 ft 457 kts 82°
2026-04-25 17:50 52.97278 -50.13392 37555 ft 457 kts 82°
2026-04-25 17:51 52.98094 -50.02936 37552 ft 458 kts 82°
2026-04-25 17:51 52.99280 -49.92619 37549 ft 458 kts 76°
2026-04-25 17:52 53.00788 -49.82311 37548 ft 458 kts 76°
2026-04-25 17:52 53.02284 -49.72074 37545 ft 458 kts 76°
2026-04-25 17:53 53.03763 -49.61749 37549 ft 458 kts 77°
2026-04-25 17:53 53.05220 -49.51424 37541 ft 458 kts 77°
2026-04-25 17:54 53.06659 -49.41135 37545 ft 458 kts 77°
2026-04-25 17:54 53.08090 -49.30843 37541 ft 458 kts 77°
2026-04-25 17:55 53.09518 -49.20499 37539 ft 458 kts 77°
2026-04-25 17:55 53.10927 -49.10218 37540 ft 458 kts 77°
2026-04-25 17:56 53.12334 -48.99880 37538 ft 458 kts 77°
2026-04-25 17:56 53.13738 -48.89496 37536 ft 458 kts 77°
2026-04-25 17:57 53.15126 -48.79167 37542 ft 458 kts 78°
2026-04-25 17:57 53.16510 -48.68780 37544 ft 458 kts 78°
2026-04-25 17:58 53.17887 -48.58380 37537 ft 459 kts 78°
2026-04-25 17:58 53.19243 -48.48056 37539 ft 459 kts 78°
2026-04-25 17:59 53.20607 -48.37597 37539 ft 459 kts 78°
2026-04-25 17:59 53.21955 -48.27186 37534 ft 459 kts 78°
2026-04-25 18:00 53.23069 -48.18524 37543 ft 459 kts 78°
2026-04-25 18:00 53.24621 -48.06369 37534 ft 460 kts 78°
2026-04-25 18:01 53.25940 -47.95960 37529 ft 460 kts 78°
2026-04-25 18:01 53.27255 -47.85490 37539 ft 459 kts 79°
2026-04-25 18:02 53.28563 -47.75005 37549 ft 459 kts 79°
2026-04-25 18:02 53.29854 -47.64577 37536 ft 460 kts 79°
2026-04-25 18:03 53.31144 -47.54073 37533 ft 460 kts 79°
2026-04-25 18:03 53.32207 -47.45354 37538 ft 459 kts 79°
2026-04-25 18:04 53.33684 -47.33147 37538 ft 459 kts 79°
2026-04-25 18:04 53.34735 -47.24400 37539 ft 459 kts 79°
2026-04-25 18:05 53.35981 -47.13947 37536 ft 459 kts 79°
2026-04-25 18:05 53.37226 -47.03414 37553 ft 459 kts 79°
2026-04-25 18:06 53.38454 -46.92945 37540 ft 461 kts 79°
2026-04-25 18:06 53.39685 -46.82364 37535 ft 462 kts 80°
2026-04-25 18:07 53.40900 -46.71837 37537 ft 462 kts 80°
2026-04-25 18:07 53.42112 -46.61254 37542 ft 461 kts 80°
2026-04-25 18:08 53.43314 -46.50665 37541 ft 461 kts 80°
2026-04-25 18:08 53.44499 -46.40134 37545 ft 461 kts 80°
2026-04-25 18:09 53.45676 -46.29596 37545 ft 461 kts 80°
2026-04-25 18:09 53.46848 -46.19002 37548 ft 461 kts 81°
2026-04-25 18:10 53.48010 -46.08411 37547 ft 461 kts 81°
2026-04-25 18:10 53.49160 -45.97845 37551 ft 462 kts 81°
2026-04-25 18:11 53.50308 -45.87197 37551 ft 463 kts 81°
2026-04-25 18:11 53.51448 -45.76538 37551 ft 463 kts 81°
2026-04-25 18:12 53.52573 -45.65915 37553 ft 463 kts 81°
2026-04-25 18:12 53.53697 -45.55216 37558 ft 464 kts 81°
2026-04-25 18:13 53.54805 -45.44564 37559 ft 464 kts 81°
2026-04-25 18:13 53.55910 -45.33850 37559 ft 464 kts 81°
2026-04-25 18:14 53.57545 -45.17818 37568 ft 465 kts 82°
2026-04-25 18:14 53.58628 -45.07070 37577 ft 465 kts 82°
2026-04-25 18:15 53.59699 -44.96332 37574 ft 465 kts 82°
2026-04-25 18:15 53.60761 -44.85591 37572 ft 464 kts 82°
2026-04-25 18:16 53.61807 -44.74914 37578 ft 463 kts 82°
2026-04-25 18:17 53.63358 -44.58884 37574 ft 463 kts 82°
2026-04-25 18:17 53.64385 -44.48140 37583 ft 463 kts 82°
2026-04-25 18:18 53.65400 -44.37415 37584 ft 463 kts 83°
2026-04-25 18:18 53.66399 -44.26749 37584 ft 463 kts 83°
2026-04-25 18:19 53.67399 -44.15968 37595 ft 463 kts 83°
2026-04-25 18:19 53.68381 -44.05278 37601 ft 464 kts 83°
2026-04-25 18:20 53.69359 -43.94512 37597 ft 464 kts 83°
2026-04-25 18:20 53.70331 -43.83709 37602 ft 465 kts 83°
2026-04-25 18:21 53.71293 -43.72902 37603 ft 465 kts 83°
2026-04-25 18:21 53.72247 -43.62072 37607 ft 466 kts 83°
2026-04-25 18:22 53.73189 -43.51259 37610 ft 466 kts 83°
2026-04-25 18:22 53.74120 -43.40456 37611 ft 466 kts 84°
2026-04-25 18:23 53.75047 -43.29584 37613 ft 466 kts 84°
2026-04-25 18:23 53.75964 -43.18703 37615 ft 467 kts 84°
2026-04-25 18:24 53.76866 -43.07884 37621 ft 467 kts 84°
2026-04-25 18:24 53.77765 -42.96977 37624 ft 467 kts 84°
2026-04-25 18:25 53.78651 -42.86104 37625 ft 468 kts 84°
2026-04-25 18:25 53.79527 -42.75228 37627 ft 468 kts 84°
2026-04-25 18:26 53.80399 -42.64276 37630 ft 468 kts 84°
2026-04-25 18:26 53.81256 -42.53381 37638 ft 469 kts 85°
2026-04-25 18:27 53.82105 -42.42456 37641 ft 469 kts 85°
2026-04-25 18:27 53.82943 -42.31544 37640 ft 469 kts 85°
2026-04-25 18:28 53.83777 -42.20549 37649 ft 469 kts 85°
2026-04-25 18:28 53.84598 -42.09591 37646 ft 470 kts 85°
2026-04-25 18:29 53.85817 -41.93057 37653 ft 470 kts 85°
2026-04-25 18:30 53.87399 -41.71121 37657 ft 471 kts 86°
2026-04-25 18:30 53.88179 -41.60074 37663 ft 471 kts 86°
2026-04-25 18:31 53.88946 -41.49073 37660 ft 471 kts 86°
2026-04-25 18:31 53.89707 -41.38014 37665 ft 471 kts 86°
2026-04-25 18:32 53.90454 -41.27000 37669 ft 471 kts 86°
2026-04-25 18:32 53.91194 -41.15934 37667 ft 471 kts 86°
2026-04-25 18:33 53.91920 -41.04933 37676 ft 472 kts 86°
2026-04-25 18:33 53.92639 -40.93879 37677 ft 472 kts 86°
2026-04-25 18:34 53.93350 -40.82778 37683 ft 472 kts 86°
2026-04-25 18:34 53.94047 -40.71735 37686 ft 472 kts 87°
2026-04-25 18:35 53.94740 -40.60598 37690 ft 473 kts 87°
2026-04-25 18:35 53.95417 -40.49542 37690 ft 473 kts 87°
2026-04-25 18:36 53.96089 -40.38406 37689 ft 473 kts 87°
2026-04-25 18:36 53.96748 -40.27314 37698 ft 473 kts 87°
2026-04-25 18:37 53.97397 -40.16212 37698 ft 474 kts 87°
2026-04-25 18:37 53.98041 -40.05037 37709 ft 474 kts 87°
2026-04-25 18:38 53.98631 -39.93938 37710 ft 473 kts 89°
2026-04-25 18:38 53.99078 -39.82736 37716 ft 473 kts 89°
2026-04-25 18:39 53.99490 -39.71605 37711 ft 474 kts 89°
2026-04-25 18:39 53.99910 -39.60389 37716 ft 474 kts 89°
2026-04-25 18:40 54.00329 -39.49255 37725 ft 474 kts 89°
2026-04-25 18:40 54.00745 -39.38007 37723 ft 475 kts 89°
2026-04-25 18:41 54.01148 -39.26810 37728 ft 475 kts 90°
2026-04-25 18:41 54.01540 -39.15643 37731 ft 475 kts 90°
2026-04-25 18:42 54.01797 -39.08115 37730 ft 475 kts 90°
2026-04-25 18:42 54.02294 -38.93191 37739 ft 475 kts 90°
2026-04-25 18:43 54.02657 -38.81922 37738 ft 475 kts 90°
2026-04-25 18:43 54.03007 -38.70749 37741 ft 475 kts 90°
2026-04-25 18:44 54.03348 -38.59492 37742 ft 476 kts 90°
2026-04-25 18:44 54.03678 -38.48274 37747 ft 476 kts 90°
2026-04-25 18:45 54.03998 -38.37015 37749 ft 476 kts 90°
2026-04-25 18:45 54.04307 -38.25798 37752 ft 476 kts 90°
2026-04-25 18:46 54.04607 -38.14493 37759 ft 477 kts 90°
2026-04-25 18:46 54.04896 -38.03246 37759 ft 477 kts 91°
2026-04-25 18:47 54.05175 -37.91940 37764 ft 477 kts 91°
2026-04-25 18:47 54.05400 -37.82511 37766 ft 478 kts 91°
2026-04-25 18:48 54.05658 -37.71260 37775 ft 478 kts 91°
2026-04-25 18:48 54.05908 -37.59922 37766 ft 479 kts 91°
2026-04-25 18:49 54.06148 -37.48558 37779 ft 479 kts 91°
2026-04-25 18:49 54.06376 -37.37259 37778 ft 479 kts 91°
2026-04-25 18:50 54.06594 -37.25883 37778 ft 480 kts 91°
2026-04-25 18:50 54.06802 -37.14512 37781 ft 480 kts 91°
2026-04-25 18:51 54.06967 -37.05049 37781 ft 480 kts 91°
2026-04-25 18:51 54.07185 -36.91775 37786 ft 481 kts 91°
2026-04-25 18:52 54.07360 -36.80445 37792 ft 481 kts 91°
2026-04-25 18:52 54.07526 -36.69017 37790 ft 481 kts 92°
2026-04-25 18:53 54.07680 -36.57662 37795 ft 481 kts 92°
2026-04-25 18:53 54.07823 -36.46280 37806 ft 482 kts 92°
2026-04-25 18:54 54.08019 -36.29091 37803 ft 482 kts 92°
2026-04-25 18:55 54.08136 -36.17702 37805 ft 482 kts 92°
2026-04-25 18:55 54.08242 -36.06325 37813 ft 483 kts 92°
2026-04-25 18:56 54.08337 -35.94876 37820 ft 483 kts 92°
2026-04-25 18:56 54.08422 -35.83397 37825 ft 483 kts 92°
2026-04-25 18:57 54.08496 -35.71953 37826 ft 484 kts 92°
2026-04-25 18:57 54.08558 -35.60544 37822 ft 484 kts 92°
2026-04-25 18:58 54.08610 -35.49027 37828 ft 484 kts 92°
2026-04-25 18:58 54.08668 -35.31848 37835 ft 485 kts 92°
2026-04-25 18:59 54.08707 -35.08849 37842 ft 485 kts 93°
2026-04-25 19:00 54.08707 -34.91603 37836 ft 486 kts 93°
2026-04-25 19:01 54.08683 -34.74345 37842 ft 486 kts 93°
2026-04-25 19:01 54.08653 -34.62793 37854 ft 487 kts 93°
2026-04-25 19:02 54.08587 -34.45527 37856 ft 487 kts 93°
2026-04-25 19:03 54.08507 -34.30087 37860 ft 488 kts 93°
2026-04-25 19:03 54.08422 -34.16609 37863 ft 488 kts 93°
2026-04-25 19:04 54.08295 -33.99974 37866 ft 488 kts 93°
2026-04-25 19:05 54.08081 -33.76852 37869 ft 489 kts 94°
2026-04-25 19:06 54.07958 -33.65289 37875 ft 489 kts 94°
2026-04-25 19:06 54.07751 -33.47894 37875 ft 489 kts 94°
2026-04-25 19:07 54.07520 -33.30565 37886 ft 489 kts 94°
2026-04-25 19:08 54.07263 -33.13196 37884 ft 490 kts 94°
2026-04-25 19:09 54.06914 -32.91915 37884 ft 490 kts 94°
2026-04-25 19:10 54.06565 -32.72604 37886 ft 490 kts 94°
2026-04-25 19:10 54.06341 -32.61030 37901 ft 491 kts 94°
2026-04-25 19:11 54.06105 -32.49381 37903 ft 491 kts 94°
2026-04-25 19:11 54.05858 -32.37807 37890 ft 491 kts 94°
2026-04-25 19:12 54.05599 -32.26145 37894 ft 491 kts 94°
2026-04-25 19:12 54.05330 -32.14576 37908 ft 491 kts 94°
2026-04-25 19:13 54.05049 -32.02925 37898 ft 491 kts 94°
2026-04-25 19:13 54.04758 -31.91363 37902 ft 491 kts 94°
2026-04-25 19:14 54.04166 -31.69082 37915 ft 492 kts 95°
2026-04-25 19:15 54.03497 -31.45553 37916 ft 492 kts 95°
2026-04-25 19:16 54.03151 -31.33987 37919 ft 492 kts 95°
2026-04-25 19:16 54.02790 -31.22317 37917 ft 493 kts 95°
2026-04-25 19:17 54.02419 -31.10661 37923 ft 493 kts 95°
2026-04-25 19:17 54.02038 -30.99070 37924 ft 493 kts 95°
2026-04-25 19:18 54.01644 -30.87427 37920 ft 493 kts 95°
2026-04-25 19:18 54.01239 -30.75769 37924 ft 493 kts 95°
2026-04-25 19:19 54.00824 -30.64152 37927 ft 494 kts 95°
2026-04-25 19:19 54.00395 -30.52478 37931 ft 494 kts 95°
2026-04-25 19:20 53.99958 -30.40869 37932 ft 494 kts 95°
2026-04-25 19:20 53.99506 -30.29190 37936 ft 494 kts 95°
2026-04-25 19:21 53.99046 -30.17568 37935 ft 495 kts 95°
2026-04-25 19:21 53.98381 -30.00025 37940 ft 495 kts 92°
2026-04-25 19:22 53.98700 -29.88350 37951 ft 497 kts 87°
2026-04-25 19:23 53.99481 -29.70771 37942 ft 497 kts 87°
2026-04-25 19:23 54.00186 -29.53199 37944 ft 498 kts 87°
2026-04-25 19:24 54.00622 -29.41432 37946 ft 498 kts 88°
2026-04-25 19:25 54.01456 -29.17964 37951 ft 498 kts 88°
2026-04-25 19:25 54.01860 -29.06165 37952 ft 498 kts 88°
2026-04-25 19:26 54.02251 -28.94443 37952 ft 498 kts 88°
2026-04-25 19:26 54.02630 -28.82705 37951 ft 498 kts 88°
2026-04-25 19:27 54.02938 -28.72898 37955 ft 498 kts 88°
2026-04-25 19:27 54.03355 -28.59187 37961 ft 498 kts 88°
2026-04-25 19:28 54.03700 -28.47409 37958 ft 498 kts 88°
2026-04-25 19:28 54.04033 -28.35674 37959 ft 498 kts 88°
2026-04-25 19:29 54.04357 -28.23837 37956 ft 499 kts 88°
2026-04-25 19:29 54.04667 -28.12102 37962 ft 499 kts 88°
2026-04-25 19:30 54.04968 -28.00277 37958 ft 499 kts 88°
2026-04-25 19:30 54.05255 -27.88510 37961 ft 499 kts 89°
2026-04-25 19:31 54.05534 -27.76628 37962 ft 500 kts 89°
2026-04-25 19:31 54.05799 -27.64860 37970 ft 500 kts 89°
2026-04-25 19:32 54.06054 -27.52995 37960 ft 500 kts 89°
2026-04-25 19:32 54.06215 -27.45158 37960 ft 500 kts 89°
2026-04-25 19:33 54.06527 -27.29344 37969 ft 500 kts 89°
2026-04-25 19:33 54.06746 -27.17533 37963 ft 501 kts 89°
2026-04-25 19:34 54.06954 -27.05648 37968 ft 501 kts 89°
2026-04-25 19:34 54.07150 -26.93840 37966 ft 501 kts 89°
2026-04-25 19:35 54.07335 -26.81978 37970 ft 501 kts 89°
2026-04-25 19:35 54.07509 -26.70077 37974 ft 501 kts 89°
2026-04-25 19:36 54.07670 -26.58269 37972 ft 501 kts 90°
2026-04-25 19:36 54.07820 -26.46394 37971 ft 501 kts 90°
2026-04-25 19:37 54.07958 -26.34515 37970 ft 501 kts 90°
2026-04-25 19:37 54.08085 -26.22601 37971 ft 501 kts 90°
2026-04-25 19:38 54.08200 -26.10761 37972 ft 501 kts 90°
2026-04-25 19:38 54.08303 -25.98920 37977 ft 502 kts 90°
2026-04-25 19:39 54.08394 -25.87026 37971 ft 502 kts 90°
2026-04-25 19:39 54.08475 -25.75098 37976 ft 502 kts 90°
2026-04-25 19:40 54.08543 -25.63227 37972 ft 502 kts 90°
2026-04-25 19:40 54.08599 -25.51325 37976 ft 502 kts 90°
2026-04-25 19:41 54.08644 -25.39479 37974 ft 502 kts 91°
2026-04-25 19:41 54.08667 -25.31587 37978 ft 502 kts 91°
2026-04-25 19:42 54.08698 -25.15703 37975 ft 502 kts 91°
2026-04-25 19:42 54.08708 -25.03860 37980 ft 502 kts 91°
2026-04-25 19:43 54.08706 -24.91960 37974 ft 502 kts 91°
2026-04-25 19:43 54.08692 -24.80056 37981 ft 502 kts 91°
2026-04-25 19:44 54.08667 -24.68237 37980 ft 502 kts 91°
2026-04-25 19:44 54.08630 -24.56324 37983 ft 502 kts 91°
2026-04-25 19:45 54.08581 -24.44422 37986 ft 502 kts 91°
2026-04-25 19:45 54.08520 -24.32573 37989 ft 502 kts 92°
2026-04-25 19:46 54.08461 -24.22672 37986 ft 502 kts 92°
2026-04-25 19:46 54.08364 -24.08837 37992 ft 502 kts 92°
2026-04-25 19:47 54.08269 -23.96982 37986 ft 502 kts 92°
2026-04-25 19:47 54.08180 -23.87018 37990 ft 502 kts 92°
2026-04-25 19:48 54.08063 -23.75199 37988 ft 501 kts 92°
2026-04-25 19:48 54.07934 -23.63280 37991 ft 501 kts 92°
2026-04-25 19:49 54.07818 -23.53385 37989 ft 501 kts 92°
2026-04-25 19:49 54.07642 -23.39558 37994 ft 501 kts 92°
2026-04-25 19:50 54.07392 -23.21778 37992 ft 501 kts 93°
2026-04-25 19:51 54.07211 -23.09958 37996 ft 501 kts 93°
2026-04-25 19:51 54.07018 -22.98076 37995 ft 501 kts 93°
2026-04-25 19:52 54.06815 -22.86266 37996 ft 500 kts 93°
2026-04-25 19:52 54.06600 -22.74463 37999 ft 500 kts 94°
2026-04-25 19:53 54.06372 -22.62625 38006 ft 500 kts 94°
2026-04-25 19:53 54.06133 -22.50774 38005 ft 500 kts 94°
2026-04-25 19:54 54.05882 -22.38931 38016 ft 499 kts 94°
2026-04-25 19:54 54.05621 -22.27157 38000 ft 499 kts 94°
2026-04-25 19:55 54.05348 -22.15342 38004 ft 499 kts 94°
2026-04-25 19:55 54.05063 -22.03526 38005 ft 499 kts 94°
2026-04-25 19:56 54.04768 -21.91775 38011 ft 499 kts 94°
2026-04-25 19:56 54.04460 -21.79972 38012 ft 499 kts 95°
2026-04-25 19:57 54.04141 -21.68165 38017 ft 499 kts 95°
2026-04-25 19:57 54.03811 -21.56405 38013 ft 499 kts 95°
2026-04-25 19:58 54.03468 -21.44603 38019 ft 499 kts 95°
2026-04-25 19:58 54.03116 -21.32848 38021 ft 499 kts 95°
2026-04-25 19:59 54.02750 -21.21044 38021 ft 499 kts 95°
2026-04-25 19:59 54.02372 -21.09225 38025 ft 499 kts 95°
2026-04-25 20:00 54.01986 -20.97500 38026 ft 499 kts 95°
2026-04-25 20:00 54.01585 -20.85708 38028 ft 499 kts 95°
2026-04-25 20:01 54.00964 -20.68048 38026 ft 498 kts 96°
2026-04-25 20:01 54.00536 -20.56288 38040 ft 498 kts 96°
2026-04-25 20:02 54.00097 -20.44527 38039 ft 498 kts 96°
2026-04-25 20:02 53.99649 -20.32856 38050 ft 498 kts 96°
2026-04-25 20:03 53.99186 -20.21066 38049 ft 497 kts 96°
2026-04-25 20:03 53.98718 -20.09414 38056 ft 497 kts 96°
2026-04-25 20:04 53.98326 -19.97642 38054 ft 498 kts 91°
2026-04-25 20:04 53.98529 -19.85908 38065 ft 498 kts 90°
2026-04-25 20:05 53.98806 -19.74155 38053 ft 498 kts 90°
2026-04-25 20:05 53.99051 -19.62352 38064 ft 498 kts 90°
2026-04-25 20:06 53.99258 -19.50627 38057 ft 498 kts 90°
2026-04-25 20:06 53.99447 -19.38807 38060 ft 498 kts 91°
2026-04-25 20:07 53.99623 -19.27050 38071 ft 498 kts 91°
2026-04-25 20:07 53.99789 -19.15319 38074 ft 498 kts 91°
2026-04-25 20:08 53.99945 -19.03529 38076 ft 498 kts 91°
2026-04-25 20:08 54.00089 -18.91771 38073 ft 497 kts 91°
2026-04-25 20:09 54.00222 -18.79997 38076 ft 497 kts 91°
2026-04-25 20:09 54.00343 -18.68279 38079 ft 497 kts 91°
2026-04-25 20:10 54.00453 -18.56503 38080 ft 497 kts 91°
2026-04-25 20:10 54.00551 -18.44819 38080 ft 496 kts 92°
2026-04-25 20:11 54.00637 -18.33068 38085 ft 496 kts 92°
2026-04-25 20:11 54.00712 -18.21406 38091 ft 496 kts 92°
2026-04-25 20:12 54.00776 -18.09691 38087 ft 495 kts 92°
2026-04-25 20:12 54.00812 -18.01899 38092 ft 495 kts 92°
2026-04-25 20:13 54.00869 -17.86261 38093 ft 495 kts 92°
2026-04-25 20:13 54.00898 -17.74587 38094 ft 495 kts 92°
2026-04-25 20:14 54.00917 -17.62907 38098 ft 495 kts 92°
2026-04-25 20:14 54.00924 -17.51160 38101 ft 495 kts 93°
2026-04-25 20:15 54.00919 -17.39472 38098 ft 495 kts 93°
2026-04-25 20:15 54.00903 -17.27826 38102 ft 494 kts 93°
2026-04-25 20:16 54.00876 -17.16100 38111 ft 494 kts 93°
2026-04-25 20:16 54.00838 -17.04426 38116 ft 494 kts 93°
2026-04-25 20:17 54.00860 -16.92797 38112 ft 495 kts 88°
2026-04-25 20:17 54.01740 -16.81137 38100 ft 496 kts 85°
2026-04-25 20:18 54.02293 -16.69505 38122 ft 494 kts 91°
2026-04-25 20:18 54.02333 -16.57785 38119 ft 494 kts 94°
2026-04-25 20:19 54.02189 -16.46072 38125 ft 494 kts 94°
2026-04-25 20:19 54.02042 -16.34455 38128 ft 494 kts 94°
2026-04-25 20:20 54.01914 -16.22753 38132 ft 495 kts 94°
2026-04-25 20:20 54.01787 -16.11028 38134 ft 494 kts 94°
2026-04-25 20:21 54.01649 -15.99358 38134 ft 494 kts 94°
2026-04-25 20:21 54.01499 -15.87728 38139 ft 494 kts 95°
2026-04-25 20:22 54.01391 -15.79901 38137 ft 494 kts 95°
2026-04-25 20:22 54.01162 -15.64400 38137 ft 494 kts 95°
2026-04-25 20:23 54.00976 -15.52694 38136 ft 494 kts 95°
2026-04-25 20:23 54.00781 -15.41079 38151 ft 493 kts 95°
2026-04-25 20:24 54.00573 -15.29393 38149 ft 493 kts 95°
2026-04-25 20:24 54.00353 -15.17697 38151 ft 493 kts 95°
2026-04-25 20:25 54.00126 -15.06092 38150 ft 493 kts 95°
2026-04-25 20:25 53.99934 -14.94395 38157 ft 494 kts 93°
2026-04-25 20:26 53.99989 -14.82744 38162 ft 495 kts 92°
2026-04-25 20:26 54.00071 -14.71004 38162 ft 496 kts 92°
2026-04-25 20:27 54.00103 -14.59271 38173 ft 502 kts 93°
2026-04-25 20:27 54.00103 -14.47292 38172 ft 509 kts 93°
2026-04-25 20:28 54.00092 -14.35302 38163 ft 510 kts 93°
2026-04-25 20:28 54.00073 -14.23210 38164 ft 510 kts 93°
2026-04-25 20:29 54.00042 -14.11225 38166 ft 508 kts 93°
2026-04-25 20:29 53.99873 -13.99245 38163 ft 504 kts 98°
2026-04-25 20:30 53.98757 -13.87532 38172 ft 499 kts 104°
2026-04-25 20:30 53.97430 -13.75989 38171 ft 498 kts 104°
2026-04-25 20:31 53.96118 -13.64493 38178 ft 497 kts 104°
2026-04-25 20:31 53.94823 -13.52961 38178 ft 497 kts 104°
2026-04-25 20:32 53.93745 -13.43346 38186 ft 498 kts 104°
2026-04-25 20:32 53.92440 -13.31791 38186 ft 498 kts 104°
2026-04-25 20:33 53.91124 -13.20256 38184 ft 499 kts 104°
2026-04-25 20:33 53.90015 -13.10624 38185 ft 499 kts 104°
2026-04-25 20:34 53.88448 -12.97144 38187 ft 500 kts 104°
2026-04-25 20:34 53.87096 -12.85614 38189 ft 500 kts 104°
2026-04-25 20:35 53.85721 -12.74004 38188 ft 500 kts 104°
2026-04-25 20:35 53.84341 -12.62440 38193 ft 500 kts 104°
2026-04-25 20:36 53.82958 -12.50961 38193 ft 500 kts 104°
2026-04-25 20:36 53.81554 -12.39395 38194 ft 500 kts 104°
2026-04-25 20:37 53.80145 -12.27896 38209 ft 500 kts 104°
2026-04-25 20:37 53.78726 -12.16417 38192 ft 500 kts 104°
2026-04-25 20:38 53.77289 -12.04879 38198 ft 500 kts 104°
2026-04-25 20:38 53.75842 -11.93365 38198 ft 500 kts 104°
2026-04-25 20:39 53.74395 -11.81947 38204 ft 500 kts 104°
2026-04-25 20:39 53.73176 -11.72394 38204 ft 499 kts 105°
2026-04-25 20:40 53.71447 -11.58955 38204 ft 499 kts 105°
2026-04-25 20:40 53.69968 -11.47565 38193 ft 499 kts 105°
2026-04-25 20:41 53.68467 -11.36092 38211 ft 499 kts 105°
2026-04-25 20:41 53.66961 -11.24674 38203 ft 499 kts 105°
2026-04-25 20:42 53.65434 -11.13193 38198 ft 499 kts 105°
2026-04-25 20:42 53.63912 -11.01835 38202 ft 500 kts 105°
2026-04-25 20:43 53.62374 -10.90445 38217 ft 500 kts 105°
2026-04-25 20:43 53.60821 -10.79035 38211 ft 500 kts 105°
2026-04-25 20:44 53.59252 -10.67594 38209 ft 500 kts 105°
2026-04-25 20:44 53.57681 -10.56230 38207 ft 500 kts 105°
2026-04-25 20:45 53.56090 -10.44806 38211 ft 500 kts 105°
2026-04-25 20:45 53.54497 -10.33451 38210 ft 500 kts 105°
2026-04-25 20:46 53.52882 -10.22026 38214 ft 500 kts 105°
2026-04-25 20:46 53.51263 -10.10661 38217 ft 501 kts 105°
2026-04-25 20:47 53.49640 -9.99350 38213 ft 501 kts 105°
2026-04-25 20:47 53.47993 -9.87956 38214 ft 501 kts 105°
2026-04-25 20:48 53.46336 -9.76577 38216 ft 501 kts 105°
2026-04-25 20:48 53.44677 -9.65264 38215 ft 501 kts 105°
2026-04-25 20:49 53.42998 -9.53896 38206 ft 501 kts 106°
2026-04-25 20:49 53.41306 -9.42530 38213 ft 501 kts 106°
2026-04-25 20:50 53.39616 -9.31257 38209 ft 500 kts 106°
2026-04-25 20:50 53.37904 -9.19912 38211 ft 500 kts 106°
2026-04-25 20:51 53.36200 -9.08698 38207 ft 500 kts 106°
2026-04-25 20:51 53.34469 -8.97391 38204 ft 499 kts 106°
2026-04-25 20:52 53.33027 -8.88030 38202 ft 499 kts 106°
2026-04-25 20:52 53.30997 -8.74938 38212 ft 499 kts 106°
2026-04-25 20:53 53.29234 -8.63659 38214 ft 499 kts 106°
2026-04-25 20:53 53.27477 -8.52489 38208 ft 499 kts 106°
2026-04-25 20:54 53.25696 -8.41243 38196 ft 499 kts 106°
2026-04-25 20:54 53.23918 -8.30098 38195 ft 499 kts 107°
2026-04-25 20:55 53.22117 -8.18878 38194 ft 499 kts 107°
2026-04-25 20:55 53.20307 -8.07677 38190 ft 499 kts 107°
2026-04-25 20:56 53.18496 -7.96544 38188 ft 499 kts 107°
2026-04-25 20:56 53.16661 -7.85340 38185 ft 500 kts 107°
2026-04-25 20:57 53.14827 -7.74210 38183 ft 500 kts 107°
2026-04-25 20:57 53.12981 -7.63082 38189 ft 500 kts 107°
2026-04-25 20:58 53.11113 -7.51900 38182 ft 500 kts 107°
2026-04-25 20:58 53.09250 -7.40809 38181 ft 500 kts 107°
2026-04-25 20:59 53.07365 -7.29664 38184 ft 499 kts 107°
2026-04-25 20:59 53.05476 -7.18571 38183 ft 499 kts 107°
2026-04-25 21:00 53.04203 -7.11126 38182 ft 499 kts 107°
2026-04-25 21:01 53.00702 -6.90831 38183 ft 499 kts 107°
2026-04-25 21:01 52.98778 -6.79774 38190 ft 499 kts 107°
2026-04-25 21:02 52.96837 -6.68685 38199 ft 499 kts 107°
2026-04-25 21:02 52.94892 -6.57648 38198 ft 499 kts 108°
2026-04-25 21:03 52.92928 -6.46565 38193 ft 499 kts 108°
2026-04-25 21:03 52.90969 -6.35585 38196 ft 499 kts 108°
2026-04-25 21:04 52.88989 -6.24545 38196 ft 498 kts 108°
2026-04-25 21:04 52.87008 -6.13574 38201 ft 498 kts 108°
2026-04-25 21:05 52.85020 -6.02627 38205 ft 498 kts 108°
2026-04-25 21:05 52.83011 -5.91628 38205 ft 498 kts 108°
2026-04-25 21:06 52.81005 -5.80711 38209 ft 498 kts 108°
2026-04-25 21:06 52.78977 -5.69741 38212 ft 498 kts 108°
2026-04-25 21:07 52.76956 -5.58858 38209 ft 497 kts 109°
2026-04-25 21:07 52.74291 -5.48330 38216 ft 494 kts 119°
2026-04-25 21:08 52.71076 -5.38350 38213 ft 494 kts 120°
2026-04-25 21:08 52.67833 -5.28327 38221 ft 494 kts 120°
2026-04-25 21:09 52.63032 -5.13336 38222 ft 494 kts 120°
2026-04-25 21:09 52.59825 -5.03312 38222 ft 494 kts 120°
2026-04-25 21:10 52.56607 -4.93297 38219 ft 494 kts 120°
2026-04-25 21:10 52.53397 -4.83350 38220 ft 494 kts 120°
2026-04-25 21:11 52.50173 -4.73407 38216 ft 494 kts 120°
2026-04-25 21:11 52.46930 -4.63445 38217 ft 494 kts 120°
2026-04-25 21:12 52.43673 -4.53482 38218 ft 494 kts 120°
2026-04-25 21:12 52.41511 -4.46896 38216 ft 494 kts 120°
2026-04-25 21:13 52.37155 -4.33676 38219 ft 495 kts 120°
2026-04-25 21:13 52.33872 -4.23753 38219 ft 495 kts 120°
2026-04-25 21:14 52.31126 -4.15481 38217 ft 496 kts 120°
2026-04-25 21:14 52.27820 -4.05561 38219 ft 496 kts 120°
2026-04-25 21:15 52.24519 -3.95695 38217 ft 497 kts 120°
2026-04-25 21:15 52.21183 -3.85762 38219 ft 497 kts 120°
2026-04-25 21:16 52.17876 -3.75957 38215 ft 497 kts 120°
2026-04-25 21:16 52.14524 -3.66056 38220 ft 497 kts 120°
2026-04-25 21:17 52.11186 -3.56236 38219 ft 496 kts 120°
2026-04-25 21:17 52.07850 -3.46463 38219 ft 496 kts 121°
2026-04-25 21:18 52.04480 -3.36626 38218 ft 496 kts 121°
2026-04-25 21:18 52.01139 -3.26914 38230 ft 495 kts 121°
2026-04-25 21:19 51.97765 -3.17141 38246 ft 495 kts 121°
2026-04-25 21:19 51.94386 -3.07393 38247 ft 495 kts 121°
2026-04-25 21:20 51.91588 -2.99352 38270 ft 494 kts 121°
2026-04-25 21:20 51.87629 -2.88014 38278 ft 494 kts 121°
2026-04-25 21:21 51.84232 -2.78329 38274 ft 494 kts 121°
2026-04-25 21:21 51.80846 -2.68710 38275 ft 494 kts 121°
2026-04-25 21:22 51.77439 -2.59069 38256 ft 494 kts 121°
2026-04-25 21:22 51.74015 -2.49416 38240 ft 494 kts 121°
2026-04-25 21:23 51.70607 -2.39845 38224 ft 494 kts 121°
2026-04-25 21:23 51.67164 -2.30214 38217 ft 494 kts 121°
2026-04-25 21:24 51.63736 -2.20660 38215 ft 494 kts 121°
2026-04-25 21:24 51.60286 -2.11080 38216 ft 494 kts 121°
2026-04-25 21:25 51.56843 -2.01558 38214 ft 494 kts 121°
2026-04-25 21:25 51.53372 -1.91991 38212 ft 494 kts 121°
2026-04-25 21:26 51.49895 -1.82447 38215 ft 494 kts 121°
2026-04-25 21:26 51.46433 -1.72979 38217 ft 494 kts 121°
2026-04-25 21:27 51.42934 -1.63443 38220 ft 494 kts 121°
2026-04-25 21:27 51.39431 -1.53935 38229 ft 494 kts 121°
2026-04-25 21:28 51.35945 -1.44506 38232 ft 494 kts 122°
2026-04-25 21:28 51.32429 -1.35031 38231 ft 494 kts 122°
2026-04-25 21:29 51.28928 -1.25630 38233 ft 494 kts 122°
2026-04-25 21:29 51.25390 -1.16166 38237 ft 494 kts 122°
2026-04-25 21:30 51.21870 -1.06787 38241 ft 495 kts 122°
2026-04-25 21:30 51.18909 -0.98921 38245 ft 497 kts 122°
2026-04-25 21:31 51.14755 -0.87930 38246 ft 499 kts 122°
2026-04-25 21:31 51.11147 -0.78417 38242 ft 501 kts 122°
2026-04-25 21:32 51.07534 -0.68928 38240 ft 503 kts 122°
2026-04-25 21:32 51.03905 -0.59433 38232 ft 500 kts 122°
2026-04-25 21:33 51.00295 -0.50020 38240 ft 501 kts 122°
2026-04-25 21:33 50.96624 -0.40487 37881 ft 505 kts 122°
2026-04-25 21:34 50.94810 -0.35788 37583 ft 504 kts 122°
2026-04-25 21:34 50.92967 -0.31023 37284 ft 502 kts 122°
2026-04-25 21:34 50.91156 -0.26346 36998 ft 502 kts 122°
2026-04-25 21:34 50.89328 -0.21638 36714 ft 501 kts 122°
2026-04-25 21:35 50.87494 -0.16919 36362 ft 502 kts 122°
2026-04-25 21:35 50.85653 -0.12194 35959 ft 504 kts 122°
2026-04-25 21:35 50.83805 -0.07457 35567 ft 505 kts 122°
2026-04-25 21:35 50.81981 -0.02787 35181 ft 506 kts 122°
2026-04-25 21:36 50.80122 0.01960 34799 ft 506 kts 122°
2026-04-25 21:36 50.78223 0.06675 34413 ft 506 kts 125°
2026-04-25 21:36 50.76067 0.11072 34002 ft 506 kts 131°
2026-04-25 21:36 50.73694 0.15103 33574 ft 506 kts 136°
2026-04-25 21:37 50.71066 0.18830 33119 ft 508 kts 142°
2026-04-25 21:37 50.69226 0.21146 32816 ft 512 kts 143°
2026-04-25 21:37 50.65472 0.25800 32209 ft 518 kts 143°
2026-04-25 21:37 50.62649 0.29334 31747 ft 517 kts 142°
2026-04-25 21:38 50.59836 0.32902 31291 ft 516 kts 142°
2026-04-25 21:38 50.57068 0.36428 30852 ft 519 kts 142°
2026-04-25 21:38 50.54246 0.40023 30425 ft 521 kts 142°
2026-04-25 21:38 50.51414 0.43626 29889 ft 521 kts 142°
2026-04-25 21:39 50.48600 0.47199 29364 ft 516 kts 142°
2026-04-25 21:39 50.45818 0.50721 28835 ft 512 kts 142°
2026-04-25 21:39 50.43041 0.54226 28318 ft 508 kts 142°
2026-04-25 21:39 50.40295 0.57687 27829 ft 504 kts 142°
2026-04-25 21:40 50.37603 0.61076 27330 ft 501 kts 142°
2026-04-25 21:40 50.34890 0.64487 26845 ft 497 kts 142°
2026-04-25 21:40 50.32203 0.67865 26403 ft 492 kts 142°
2026-04-25 21:40 50.29531 0.71223 26245 ft 488 kts 142°
2026-04-25 21:41 50.26919 0.74505 26246 ft 486 kts 142°
2026-04-25 21:41 50.24264 0.77835 26245 ft 487 kts 142°
2026-04-25 21:41 50.21613 0.81157 26243 ft 488 kts 142°
2026-04-25 21:41 50.18983 0.84445 26241 ft 488 kts 142°
2026-04-25 21:42 50.16318 0.87764 26241 ft 488 kts 142°
2026-04-25 21:42 50.13653 0.91073 26240 ft 487 kts 142°
2026-04-25 21:42 50.10999 0.94363 26241 ft 487 kts 142°
2026-04-25 21:42 50.08369 0.97619 26239 ft 487 kts 142°
2026-04-25 21:43 50.05703 1.00867 26239 ft 486 kts 145°
2026-04-25 21:43 50.02808 1.03578 26211 ft 485 kts 154°
2026-04-25 21:43 49.99763 1.05869 25976 ft 486 kts 156°
2026-04-25 21:43 49.96687 1.08028 25701 ft 483 kts 157°
2026-04-25 21:44 49.93665 1.10134 25432 ft 478 kts 157°
2026-04-25 21:44 49.90663 1.12265 25152 ft 467 kts 156°
2026-04-25 21:44 49.84955 1.16418 24592 ft 443 kts 158°
2026-04-25 21:45 49.82064 1.17921 24309 ft 431 kts 168°
2026-04-25 21:45 49.80126 1.18454 24133 ft 423 kts 175°
2026-04-25 21:45 49.76253 1.18429 23775 ft 408 kts 190°
2026-04-25 21:45 49.73552 1.17499 23443 ft 398 kts 201°
2026-04-25 21:46 49.71024 1.15886 23148 ft 388 kts 208°
2026-04-25 21:46 49.68638 1.14011 22865 ft 379 kts 210°
2026-04-25 21:46 49.66334 1.12103 22578 ft 372 kts 211°
2026-04-25 21:46 49.64069 1.10206 22294 ft 366 kts 211°
2026-04-25 21:47 49.61879 1.08365 22026 ft 359 kts 211°
2026-04-25 21:47 49.59695 1.06523 21752 ft 353 kts 211°
2026-04-25 21:47 49.57556 1.04717 21477 ft 348 kts 211°
2026-04-25 21:47 49.55436 1.02925 21209 ft 344 kts 211°
2026-04-25 21:48 49.53339 1.01168 20957 ft 340 kts 208°
2026-04-25 21:48 49.51097 1.00151 20675 ft 342 kts 186°
2026-04-25 21:48 49.48731 1.00491 20423 ft 345 kts 164°
2026-04-25 21:48 49.46581 1.02147 20192 ft 349 kts 142°
2026-04-25 21:49 49.44900 1.04840 19961 ft 351 kts 122°
2026-04-25 21:49 49.43805 1.08188 19668 ft 350 kts 113°
2026-04-25 21:49 49.42858 1.11591 19377 ft 352 kts 112°
2026-04-25 21:49 49.41917 1.15066 19031 ft 351 kts 112°
2026-04-25 21:50 49.40976 1.18516 18668 ft 349 kts 112°
2026-04-25 21:50 49.40030 1.21935 18298 ft 347 kts 112°
2026-04-25 21:50 49.39076 1.25342 17906 ft 345 kts 113°
2026-04-25 21:50 49.38432 1.27619 17630 ft 344 kts 113°
2026-04-25 21:51 49.37169 1.32066 17114 ft 341 kts 113°
2026-04-25 21:51 49.36220 1.35388 16735 ft 339 kts 113°
2026-04-25 21:51 49.35272 1.38701 16347 ft 337 kts 113°
2026-04-25 21:51 49.34339 1.41959 15967 ft 335 kts 113°
2026-04-25 21:52 49.33399 1.45234 15599 ft 334 kts 113°
2026-04-25 21:52 49.32455 1.48490 15232 ft 330 kts 116°
2026-04-25 21:52 49.31103 1.51281 14836 ft 327 kts 140°
2026-04-25 21:52 49.29202 1.53070 14500 ft 324 kts 156°
2026-04-25 21:53 49.27110 1.54352 14168 ft 322 kts 160°
2026-04-25 21:53 49.24995 1.55511 13794 ft 321 kts 161°
2026-04-25 21:53 49.22892 1.56638 13385 ft 320 kts 161°
2026-04-25 21:53 49.20785 1.57759 13001 ft 319 kts 161°
2026-04-25 21:54 49.18686 1.58867 12622 ft 318 kts 161°
2026-04-25 21:54 49.16612 1.59956 12253 ft 317 kts 161°
2026-04-25 21:54 49.14498 1.60878 11845 ft 312 kts 172°
2026-04-25 21:54 49.12358 1.61133 11496 ft 311 kts 179°
2026-04-25 21:55 49.10199 1.61187 11131 ft 310 kts 180°
2026-04-25 21:55 49.08045 1.61165 10764 ft 309 kts 181°
2026-04-25 21:55 49.05894 1.61123 10410 ft 308 kts 181°
2026-04-25 21:55 49.03779 1.61075 10218 ft 301 kts 181°
2026-04-25 21:56 49.01707 1.61021 10226 ft 299 kts 181°
2026-04-25 21:56 49.00320 1.60983 10224 ft 300 kts 181°
2026-04-25 21:56 48.98235 1.60923 10205 ft 299 kts 181°
2026-04-25 21:56 48.96141 1.60860 9908 ft 302 kts 181°
2026-04-25 21:57 48.94030 1.60793 9535 ft 302 kts 181°
2026-04-25 21:57 48.91988 1.60969 9212 ft 293 kts 164°
2026-04-25 21:57 48.90203 1.62378 9237 ft 294 kts 138°
2026-04-25 21:57 48.88980 1.64853 9218 ft 293 kts 112°
2026-04-25 21:58 48.88590 1.67860 9212 ft 288 kts 86°
2026-04-25 21:58 48.89017 1.70799 9223 ft 284 kts 69°
2026-04-25 21:58 48.89711 1.73578 9264 ft 286 kts 68°
2026-04-25 21:58 48.90428 1.76440 9102 ft 292 kts 68°
2026-04-25 21:59 48.91151 1.79351 8718 ft 295 kts 68°
2026-04-25 21:59 48.91864 1.82267 8330 ft 289 kts 70°
2026-04-25 21:59 48.92492 1.85086 7913 ft 273 kts 71°
2026-04-25 22:00 48.93539 1.90304 7232 ft 243 kts 73°
2026-04-25 22:00 48.93974 1.92671 7194 ft 223 kts 74°
2026-04-25 22:00 48.94331 1.94705 7220 ft 222 kts 74°
2026-04-25 22:00 48.94718 1.97017 7112 ft 226 kts 75°
2026-04-25 22:01 48.95094 1.99379 6752 ft 232 kts 76°
2026-04-25 22:01 48.95452 2.01771 6362 ft 235 kts 77°
2026-04-25 22:01 48.95796 2.04217 5970 ft 238 kts 77°
2026-04-25 22:01 48.96012 2.05842 5681 ft 232 kts 78°
2026-04-25 22:02 48.96397 2.08970 5129 ft 220 kts 79°
2026-04-25 22:02 48.96657 2.11171 5032 ft 207 kts 78°
2026-04-25 22:02 48.96892 2.13295 5072 ft 196 kts 81°
2026-04-25 22:02 48.97048 2.15281 4989 ft 179 kts 82°
2026-04-25 22:03 48.97161 2.17061 4955 ft 161 kts 83°
2026-04-25 22:03 48.97261 2.18770 5020 ft 169 kts 83°
2026-04-25 22:03 48.97365 2.20614 4960 ft 180 kts 83°
2026-04-25 22:03 48.97468 2.22513 4710 ft 178 kts 84°
2026-04-25 22:04 48.97566 2.24343 4476 ft 172 kts 84°
2026-04-25 22:04 48.97659 2.26103 4273 ft 161 kts 84°
2026-04-25 22:04 48.97750 2.27802 4048 ft 159 kts 84°
2026-04-25 22:04 48.97839 2.29464 3856 ft 155 kts 84°
2026-04-25 22:05 48.97926 2.31089 3657 ft 157 kts 83°
2026-04-25 22:05 48.98014 2.32723 3455 ft 149 kts 83°
2026-04-25 22:05 48.98096 2.34261 3232 ft 143 kts 83°
2026-04-25 22:05 48.98176 2.35753 3050 ft 142 kts 83°
2026-04-25 22:06 48.98257 2.37261 2859 ft 142 kts 84°
2026-04-25 22:06 48.98337 2.38754 2676 ft 140 kts 84°
2026-04-25 22:06 48.98415 2.40210 2490 ft 139 kts 84°
2026-04-25 22:06 48.98492 2.41668 2301 ft 137 kts 84°
2026-04-25 22:07 48.98570 2.43111 2118 ft 136 kts 84°
2026-04-25 22:07 48.98621 2.44060 2002 ft 135 kts 84°
2026-04-25 22:07 48.98724 2.45956 1745 ft 134 kts 83°
2026-04-25 22:07 48.98795 2.47358 1556 ft 134 kts 84°
2026-04-25 22:08 48.98872 2.48773 1373 ft 133 kts 84°
2026-04-25 22:08 48.98950 2.50190 1232 ft 137 kts 83°
2026-04-25 22:08 48.99030 2.51660 1043 ft 141 kts 83°
2026-04-25 22:08 48.99112 2.53139 822 ft 142 kts 83°
2026-04-25 22:09 48.99190 2.54631 624 ft 140 kts 83°
2026-04-25 22:09 48.99268 2.56081 430 ft 136 kts 83°
2026-04-25 22:09 48.99344 2.57487 360 ft 125 kts 85°
2026-04-25 22:09 48.99402 2.58548 360 ft 67 kts 85°
2026-04-25 22:10 48.99438 2.59097 361 ft 42 kts 80°
2026-04-25 22:10 48.99511 2.59393 364 ft 20 kts 65°
2026-04-25 22:10 48.99569 2.59585 362 ft 20 kts 65°
2026-04-25 22:10 48.99608 2.59663 365 ft 5 kts 24°
2026-04-25 22:11 48.99641 2.59677 365 ft 0 kts
2026-04-25 22:11 48.99648 2.59687 366 ft 6 kts 45°
2026-04-25 22:11 48.99645 2.59832 358 ft 18 kts 91°
2026-04-25 22:11 48.99708 2.59961 366 ft 15 kts
2026-04-25 22:12 48.99814 2.59957 365 ft 15 kts 357°
2026-04-25 22:12 48.99905 2.60015 367 ft 15 kts 43°
2026-04-25 22:12 48.99948 2.60061 365 ft 0 kts 22°
2026-04-25 22:12 48.99950 2.60062 365 ft 1 kts 22°
2026-04-25 22:13 48.99959 2.60068 364 ft 1 kts 22°
2026-04-25 22:13 48.99970 2.60074 365 ft 2 kts 22°
2026-04-25 22:13 48.99984 2.60077 364 ft 3 kts 349°
2026-04-25 22:13 49.00034 2.60026 366 ft 16 kts 327°
2026-04-25 22:14 49.00093 2.59849 362 ft 21 kts 270°
2026-04-25 22:14 49.00081 2.59623 362 ft 21 kts 265°
2026-04-25 22:14 49.00069 2.59396 363 ft 21 kts 266°
2026-04-25 22:14 49.00059 2.59173 366 ft 21 kts 264°
2026-04-25 22:15 49.00045 2.58946 361 ft 21 kts 266°
2026-04-25 22:15 49.00034 2.58720 359 ft 21 kts 264°
2026-04-25 22:15 49.00021 2.58494 359 ft 21 kts 265°
2026-04-25 22:16 48.99997 2.58046 360 ft 21 kts 265°
2026-04-25 22:16 48.99988 2.57861 367 ft 13 kts 266°
2026-04-25 22:16 48.99992 2.57784 365 ft 0 kts 291°
2026-04-25 22:16 48.99994 2.57775 368 ft 1 kts 291°
2026-04-25 22:17 48.99998 2.57762 368 ft 0 kts 294°
2026-04-25 22:17 49.00001 2.57756 363 ft 1 kts 309°
2026-04-25 22:17 49.00031 2.57749 364 ft 14 kts
2026-04-25 22:17 49.00075 2.57904 367 ft 18 kts 71°
2026-04-25 22:18 49.00129 2.57924 363 ft 9 kts 350°
2026-04-25 22:18 49.00152 2.57919 366 ft 0 kts 354°